Time,TemperatureF,DewpointF,PressureIn,WindDirection,WindDirectionDegrees,WindSpeedMPH,WindSpeedGustMPH,Humidity,HourlyPrecipIn,Conditions,Clouds,dailyrainin,SoftwareType,DateUTC
2013-03-09 00:00:00,39.6,23.4,30.14,NNE,22,8.0,8.0,52,0.00,,,0.00,Wunderground v.1.15,2013-03-09 05:00:00,
2013-03-09 00:01:00,39.5,23.3,30.14,North,5,10.0,10.0,52,0.00,,,0.00,Wunderground v.1.15,2013-03-09 05:01:00,
2013-03-09 00:06:00,39.6,23.4,30.15,NE,40,8.0,10.0,52,0.00,,,0.00,Wunderground v.1.15,2013-03-09 05:06:00,
2013-03-09 00:09:00,39.5,22.8,30.15,NE,48,5.0,14.0,51,0.00,,,0.00,Wunderground v.1.15,2013-03-09 05:09:00,
2013-03-09 00:10:00,39.5,23.3,30.15,ENE,59,3.0,7.0,52,0.00,,,0.00,Wunderground v.1.15,2013-03-09 05:10:00,
2013-03-09 00:16:00,39.4,23.7,30.15,NNE,18,9.0,10.0,53,0.00,,,0.00,Wunderground v.1.15,2013-03-09 05:16:00,
2013-03-09 00:18:00,39.3,22.7,30.15,NE,46,6.0,10.0,51,0.00,,,0.00,Wunderground v.1.15,2013-03-09 05:18:00,
2013-03-09 00:19:00,39.3,23.1,30.15,NE,36,5.0,10.0,52,0.00,,,0.00,Wunderground v.1.15,2013-03-09 05:19:00,
2013-03-09 00:21:00,39.3,23.6,30.15,ESE,102,7.0,7.0,53,0.00,,,0.00,Wunderground v.1.15,2013-03-09 05:21:00,
2013-03-09 00:23:00,39.3,23.6,30.15,NE,49,4.0,7.0,53,0.00,,,0.00,Wunderground v.1.15,2013-03-09 05:23:00,
2013-03-09 00:25:00,39.3,23.6,30.15,NNE,13,5.0,7.0,53,0.00,,,0.00,Wunderground v.1.15,2013-03-09 05:25:00,
2013-03-09 00:26:00,39.2,23.5,30.15,ENE,62,8.0,8.0,53,0.00,,,0.00,Wunderground v.1.15,2013-03-09 05:26:00,
2013-03-09 00:29:00,39.2,23.0,30.15,NNE,20,6.0,9.0,52,0.00,,,0.00,Wunderground v.1.15,2013-03-09 05:29:00,
2013-03-09 00:31:00,39.2,23.9,30.15,ENE,69,4.0,6.0,54,0.00,,,0.00,Wunderground v.1.15,2013-03-09 05:31:00,
2013-03-09 00:32:00,39.2,23.9,30.15,NNW,336,2.0,6.0,54,0.00,,,0.00,Wunderground v.1.15,2013-03-09 05:32:00,
2013-03-09 00:33:00,39.2,24.4,30.15,ENE,68,7.0,7.0,55,0.00,,,0.00,Wunderground v.1.15,2013-03-09 05:33:00,
2013-03-09 00:36:00,39.2,23.5,30.15,ENE,60,7.0,9.0,53,0.00,,,0.00,Wunderground v.1.15,2013-03-09 05:36:00,
2013-03-09 00:38:00,39.1,23.4,30.15,ENE,57,8.0,9.0,53,0.00,,,0.00,Wunderground v.1.15,2013-03-09 05:38:00,
2013-03-09 00:41:00,39.1,23.8,30.15,NNE,20,6.0,7.0,54,0.00,,,0.00,Wunderground v.1.15,2013-03-09 05:41:00,
2013-03-09 00:43:00,39.1,22.9,30.15,NE,46,3.0,11.0,52,0.00,,,0.00,Wunderground v.1.15,2013-03-09 05:43:00,
2013-03-09 00:45:00,39.0,23.3,30.15,NNE,28,3.0,11.0,53,0.00,,,0.00,Wunderground v.1.15,2013-03-09 05:45:00,
2013-03-09 00:46:00,38.9,23.7,30.15,NE,54,6.0,11.0,54,0.00,,,0.00,Wunderground v.1.15,2013-03-09 05:46:00,
2013-03-09 00:47:00,38.9,23.7,30.15,ENE,61,4.0,11.0,54,0.00,,,0.00,Wunderground v.1.15,2013-03-09 05:47:00,
2013-03-09 00:52:00,39.0,23.7,30.16,NNE,32,10.0,12.0,54,0.00,,,0.00,Wunderground v.1.15,2013-03-09 05:52:00,
2013-03-09 00:53:00,38.9,23.2,30.16,ENE,57,14.0,14.0,53,0.00,,,0.00,Wunderground v.1.15,2013-03-09 05:53:00,
2013-03-09 00:55:00,38.9,24.1,30.16,NE,55,5.0,14.0,55,0.00,,,0.00,Wunderground v.1.15,2013-03-09 05:55:00,
2013-03-09 00:56:00,38.8,23.6,30.16,East,89,5.0,14.0,54,0.00,,,0.00,Wunderground v.1.15,2013-03-09 05:56:00,
2013-03-09 01:00:00,38.9,23.2,30.16,NE,53,10.0,10.0,53,0.00,,,0.00,Wunderground v.1.15,2013-03-09 06:00:00,
2013-03-09 01:01:00,38.9,23.2,30.16,ENE,76,13.0,13.0,53,0.00,,,0.00,Wunderground v.1.15,2013-03-09 06:01:00,
2013-03-09 01:02:00,38.9,23.2,30.16,ENE,68,5.0,13.0,53,0.00,,,0.00,Wunderground v.1.15,2013-03-09 06:02:00,
2013-03-09 01:06:00,39.0,23.3,30.16,NNE,30,7.0,13.0,53,0.00,,,0.00,Wunderground v.1.15,2013-03-09 06:06:00,
2013-03-09 01:07:00,39.0,23.3,30.16,NE,34,9.0,13.0,53,0.00,,,0.00,Wunderground v.1.15,2013-03-09 06:07:00,
2013-03-09 01:09:00,38.9,22.8,30.16,SSE,168,7.0,13.0,52,0.00,,,0.00,Wunderground v.1.15,2013-03-09 06:09:00,
2013-03-09 01:10:00,38.9,23.2,30.16,ENE,71,4.0,7.0,53,0.00,,,0.00,Wunderground v.1.15,2013-03-09 06:10:00,
2013-03-09 01:12:00,38.9,23.2,30.16,ENE,57,8.0,8.0,53,0.00,,,0.00,Wunderground v.1.15,2013-03-09 06:12:00,
2013-03-09 01:16:00,38.8,23.6,30.16,ENE,76,4.0,12.0,54,0.00,,,0.00,Wunderground v.1.15,2013-03-09 06:16:00,
2013-03-09 01:18:00,38.8,23.6,30.16,ENE,58,4.0,12.0,54,0.00,,,0.00,Wunderground v.1.15,2013-03-09 06:18:00,
2013-03-09 01:20:00,38.8,23.1,30.16,East,87,9.0,9.0,53,0.00,,,0.00,Wunderground v.1.15,2013-03-09 06:20:00,
2013-03-09 01:22:00,38.8,23.6,30.16,NE,55,6.0,9.0,54,0.00,,,0.00,Wunderground v.1.15,2013-03-09 06:22:00,
2013-03-09 01:23:00,38.8,23.1,30.16,NE,40,10.0,10.0,53,0.00,,,0.00,Wunderground v.1.15,2013-03-09 06:23:00,
2013-03-09 01:25:00,38.8,23.1,30.16,NE,53,9.0,10.0,53,0.00,,,0.00,Wunderground v.1.15,2013-03-09 06:25:00,
2013-03-09 01:28:00,38.7,23.0,30.16,NE,44,6.0,10.0,53,0.00,,,0.00,Wunderground v.1.15,2013-03-09 06:28:00,
2013-03-09 01:29:00,38.7,23.0,30.16,NE,36,10.0,10.0,53,0.00,,,0.00,Wunderground v.1.15,2013-03-09 06:29:00,
2013-03-09 01:31:00,38.7,23.5,30.16,NW,316,5.0,7.0,54,0.00,,,0.00,Wunderground v.1.15,2013-03-09 06:31:00,
2013-03-09 01:34:00,38.6,22.9,30.16,NE,50,12.0,12.0,53,0.00,,,0.00,Wunderground v.1.15,2013-03-09 06:34:00,
2013-03-09 01:35:00,38.6,22.9,30.16,ENE,74,9.0,12.0,53,0.00,,,0.00,Wunderground v.1.15,2013-03-09 06:35:00,
2013-03-09 01:37:00,38.6,23.4,30.16,SE,130,5.0,12.0,54,0.00,,,0.00,Wunderground v.1.15,2013-03-09 06:37:00,
2013-03-09 01:43:00,38.4,23.2,30.16,ENE,57,10.0,10.0,54,0.00,,,0.00,Wunderground v.1.15,2013-03-09 06:43:00,
2013-03-09 01:44:00,38.4,22.7,30.16,NNE,18,7.0,10.0,53,0.00,,,0.00,Wunderground v.1.15,2013-03-09 06:44:00,
2013-03-09 01:47:00,38.4,22.7,30.16,NE,53,6.0,10.0,53,0.00,,,0.00,Wunderground v.1.15,2013-03-09 06:47:00,
2013-03-09 01:49:00,38.4,23.2,30.16,ENE,78,10.0,10.0,54,0.00,,,0.00,Wunderground v.1.15,2013-03-09 06:49:00,
2013-03-09 01:52:00,38.4,23.2,30.16,ENE,76,3.0,10.0,54,0.00,,,0.00,Wunderground v.1.15,2013-03-09 06:52:00,
2013-03-09 01:54:00,38.4,23.6,30.16,NE,34,10.0,10.0,55,0.00,,,0.00,Wunderground v.1.15,2013-03-09 06:54:00,
2013-03-09 01:56:00,38.4,22.7,30.16,NE,51,4.0,10.0,53,0.00,,,0.00,Wunderground v.1.15,2013-03-09 06:56:00,
2013-03-09 01:57:00,38.4,22.7,30.16,NE,35,3.0,10.0,53,0.00,,,0.00,Wunderground v.1.15,2013-03-09 06:57:00,
2013-03-09 01:58:00,38.4,22.7,30.16,NE,42,4.0,10.0,53,0.00,,,0.00,Wunderground v.1.15,2013-03-09 06:58:00,
2013-03-09 02:01:00,38.3,23.1,30.16,ENE,58,4.0,11.0,54,0.00,,,0.00,Wunderground v.1.15,2013-03-09 07:01:00,
2013-03-09 02:02:00,38.3,23.1,30.16,ENE,69,8.0,12.0,54,0.00,,,0.00,Wunderground v.1.15,2013-03-09 07:02:00,
2013-03-09 02:03:00,38.3,23.1,30.16,ENE,69,2.0,12.0,54,0.00,,,0.00,Wunderground v.1.15,2013-03-09 07:03:00,
2013-03-09 02:06:00,38.3,23.5,30.16,ENE,66,9.0,12.0,55,0.00,,,0.00,Wunderground v.1.15,2013-03-09 07:06:00,
2013-03-09 02:08:00,38.3,23.1,30.16,NE,45,5.0,12.0,54,0.00,,,0.00,Wunderground v.1.15,2013-03-09 07:08:00,
2013-03-09 02:11:00,38.2,23.0,30.16,NNE,28,3.0,11.0,54,0.00,,,0.00,Wunderground v.1.15,2013-03-09 07:11:00,
2013-03-09 02:13:00,38.1,22.9,30.16,NNE,32,4.0,11.0,54,0.00,,,0.00,Wunderground v.1.15,2013-03-09 07:13:00,
2013-03-09 02:16:00,38.0,23.3,30.16,ESE,105,5.0,11.0,55,0.00,,,0.00,Wunderground v.1.15,2013-03-09 07:16:00,
2013-03-09 02:17:00,38.0,23.3,30.16,NE,55,7.0,11.0,55,0.00,,,0.00,Wunderground v.1.15,2013-03-09 07:17:00,
2013-03-09 02:18:00,38.0,23.7,30.16,ENE,69,10.0,11.0,56,0.00,,,0.00,Wunderground v.1.15,2013-03-09 07:18:00,
2013-03-09 02:19:00,38.0,23.7,30.16,ENE,69,7.0,11.0,56,0.00,,,0.00,Wunderground v.1.15,2013-03-09 07:19:00,
2013-03-09 02:22:00,38.1,22.9,30.16,NE,43,6.0,10.0,54,0.00,,,0.00,Wunderground v.1.15,2013-03-09 07:22:00,
2013-03-09 02:23:00,38.0,22.8,30.16,ENE,71,9.0,10.0,54,0.00,,,0.00,Wunderground v.1.15,2013-03-09 07:23:00,
2013-03-09 02:24:00,38.0,22.8,30.16,ENE,57,8.0,10.0,54,0.00,,,0.00,Wunderground v.1.15,2013-03-09 07:24:00,
2013-03-09 02:27:00,37.9,22.7,30.16,ENE,62,3.0,11.0,54,0.00,,,0.00,Wunderground v.1.15,2013-03-09 07:27:00,
2013-03-09 02:29:00,37.9,23.2,30.16,ENE,66,10.0,11.0,55,0.00,,,0.00,Wunderground v.1.15,2013-03-09 07:29:00,
2013-03-09 02:32:00,37.9,23.2,30.15,ENE,62,3.0,17.0,55,0.00,,,0.00,Wunderground v.1.15,2013-03-09 07:32:00,
2013-03-09 02:33:00,37.9,23.2,30.15,NE,38,2.0,17.0,55,0.00,,,0.00,Wunderground v.1.15,2013-03-09 07:33:00,
2013-03-09 02:34:00,37.9,23.2,30.15,East,86,5.0,17.0,55,0.00,,,0.00,Wunderground v.1.15,2013-03-09 07:34:00,
2013-03-09 02:35:00,37.9,23.2,30.15,NE,35,4.0,17.0,55,0.00,,,0.00,Wunderground v.1.15,2013-03-09 07:35:00,
2013-03-09 02:37:00,37.8,23.1,30.15,East,95,15.0,17.0,55,0.00,,,0.00,Wunderground v.1.15,2013-03-09 07:37:00,
2013-03-09 02:38:00,37.7,23.0,30.15,ESE,105,5.0,17.0,55,0.00,,,0.00,Wunderground v.1.15,2013-03-09 07:38:00,
2013-03-09 02:39:00,37.7,22.5,30.15,ENE,74,4.0,17.0,54,0.00,,,0.00,Wunderground v.1.15,2013-03-09 07:39:00,
2013-03-09 02:40:00,37.6,22.9,30.15,NE,36,8.0,8.0,55,0.00,,,0.00,Wunderground v.1.15,2013-03-09 07:40:00,
2013-03-09 02:42:00,37.5,22.8,30.15,ENE,75,7.0,12.0,55,0.00,,,0.00,Wunderground v.1.15,2013-03-09 07:42:00,
2013-03-09 02:43:00,37.5,22.8,30.15,ENE,71,10.0,12.0,55,0.00,,,0.00,Wunderground v.1.15,2013-03-09 07:43:00,
2013-03-09 02:45:00,37.4,22.3,30.15,East,87,7.0,13.0,54,0.00,,,0.00,Wunderground v.1.15,2013-03-09 07:45:00,
2013-03-09 02:47:00,37.5,22.8,30.15,ENE,71,7.0,14.0,55,0.00,,,0.00,Wunderground v.1.15,2013-03-09 07:47:00,
2013-03-09 02:49:00,37.5,22.8,30.15,ENE,67,11.0,14.0,55,0.00,,,0.00,Wunderground v.1.15,2013-03-09 07:49:00,
2013-03-09 02:51:00,37.5,22.8,30.15,NNE,27,9.0,9.0,55,0.00,,,0.00,Wunderground v.1.15,2013-03-09 07:51:00,
2013-03-09 02:53:00,37.4,22.7,30.15,ENE,65,10.0,13.0,55,0.00,,,0.00,Wunderground v.1.15,2013-03-09 07:53:00,
2013-03-09 02:54:00,37.4,23.1,30.15,ENE,68,2.0,13.0,56,0.00,,,0.00,Wunderground v.1.15,2013-03-09 07:54:00,
2013-03-09 02:56:00,37.4,24.0,30.15,East,84,5.0,13.0,58,0.00,,,0.00,Wunderground v.1.15,2013-03-09 07:56:00,
2013-03-09 02:59:00,37.4,23.1,30.15,East,101,6.0,13.0,56,0.00,,,0.00,Wunderground v.1.15,2013-03-09 07:59:00,
2013-03-09 03:01:00,37.4,23.5,30.16,NE,39,6.0,8.0,57,0.00,,,0.00,Wunderground v.1.15,2013-03-09 08:01:00,
2013-03-09 03:04:00,37.3,22.6,30.15,ENE,76,16.0,16.0,55,0.00,,,0.00,Wunderground v.1.15,2013-03-09 08:04:00,
2013-03-09 03:06:00,37.4,22.7,30.15,ENE,67,3.0,17.0,55,0.00,,,0.00,Wunderground v.1.15,2013-03-09 08:06:00,
2013-03-09 03:08:00,37.4,23.1,30.16,ENE,75,4.0,17.0,56,0.00,,,0.00,Wunderground v.1.15,2013-03-09 08:08:00,
2013-03-09 03:09:00,37.4,23.1,30.16,East,94,10.0,17.0,56,0.00,,,0.00,Wunderground v.1.15,2013-03-09 08:09:00,
2013-03-09 03:11:00,37.4,24.0,30.15,East,83,3.0,14.0,58,0.00,,,0.00,Wunderground v.1.15,2013-03-09 08:11:00,
2013-03-09 03:13:00,37.4,22.7,30.15,East,93,7.0,14.0,55,0.00,,,0.00,Wunderground v.1.15,2013-03-09 08:13:00,
2013-03-09 03:15:00,37.4,23.1,30.15,ENE,61,10.0,14.0,56,0.00,,,0.00,Wunderground v.1.15,2013-03-09 08:15:00,
2013-03-09 03:16:00,37.4,22.3,30.15,NNE,28,10.0,15.0,54,0.00,,,0.00,Wunderground v.1.15,2013-03-09 08:16:00,
2013-03-09 03:18:00,37.3,22.6,30.15,NE,36,7.0,15.0,55,0.00,,,0.00,Wunderground v.1.15,2013-03-09 08:18:00,
2013-03-09 03:20:00,37.1,22.4,30.15,ENE,66,12.0,13.0,55,0.00,,,0.00,Wunderground v.1.15,2013-03-09 08:20:00,
2013-03-09 03:21:00,37.1,22.4,30.15,ENE,68,3.0,13.0,55,0.00,,,0.00,Wunderground v.1.15,2013-03-09 08:21:00,
2013-03-09 03:22:00,37.1,22.8,30.15,East,90,5.0,13.0,56,0.00,,,0.00,Wunderground v.1.15,2013-03-09 08:22:00,
2013-03-09 03:24:00,37.1,22.8,30.15,ENE,78,5.0,13.0,56,0.00,,,0.00,Wunderground v.1.15,2013-03-09 08:24:00,
2013-03-09 03:26:00,37.2,22.9,30.15,ENE,62,7.0,14.0,56,0.00,,,0.00,Wunderground v.1.15,2013-03-09 08:26:00,
2013-03-09 03:27:00,37.2,22.9,30.15,NNE,32,9.0,14.0,56,0.00,,,0.00,Wunderground v.1.15,2013-03-09 08:27:00,
2013-03-09 03:29:00,37.1,22.8,30.15,NE,54,6.0,14.0,56,0.00,,,0.00,Wunderground v.1.15,2013-03-09 08:29:00,
2013-03-09 03:31:00,37.1,22.8,30.15,ENE,71,5.0,10.0,56,0.00,,,0.00,Wunderground v.1.15,2013-03-09 08:31:00,
2013-03-09 03:32:00,37.1,22.8,30.15,ENE,62,4.0,10.0,56,0.00,,,0.00,Wunderground v.1.15,2013-03-09 08:32:00,
2013-03-09 03:34:00,37.1,22.8,30.15,ENE,72,3.0,10.0,56,0.00,,,0.00,Wunderground v.1.15,2013-03-09 08:34:00,
2013-03-09 03:36:00,37.1,23.3,30.15,ENE,63,4.0,10.0,57,0.00,,,0.00,Wunderground v.1.15,2013-03-09 08:36:00,
2013-03-09 03:37:00,37.1,23.3,30.16,NE,49,7.0,11.0,57,0.00,,,0.00,Wunderground v.1.15,2013-03-09 08:37:00,
2013-03-09 03:40:00,36.9,23.1,30.16,ENE,68,8.0,8.0,57,0.00,,,0.00,Wunderground v.1.15,2013-03-09 08:40:00,
2013-03-09 03:41:00,36.9,22.7,30.16,NE,53,7.0,9.0,56,0.00,,,0.00,Wunderground v.1.15,2013-03-09 08:41:00,
2013-03-09 03:42:00,36.9,22.7,30.16,East,81,9.0,11.0,56,0.00,,,0.00,Wunderground v.1.15,2013-03-09 08:42:00,
2013-03-09 03:45:00,36.8,22.6,30.16,NE,44,5.0,13.0,56,0.00,,,0.00,Wunderground v.1.15,2013-03-09 08:45:00,
2013-03-09 03:46:00,36.8,23.0,30.16,NE,52,12.0,13.0,57,0.00,,,0.00,Wunderground v.1.15,2013-03-09 08:46:00,
2013-03-09 03:47:00,36.8,22.6,30.16,ENE,63,7.0,13.0,56,0.00,,,0.00,Wunderground v.1.15,2013-03-09 08:47:00,
2013-03-09 03:48:00,36.7,22.5,30.16,NE,38,8.0,13.0,56,0.00,,,0.00,Wunderground v.1.15,2013-03-09 08:48:00,
2013-03-09 03:51:00,36.7,24.5,30.16,East,101,5.0,11.0,61,0.00,,,0.00,Wunderground v.1.15,2013-03-09 08:51:00,
2013-03-09 03:52:00,36.6,24.4,30.16,NNE,32,7.0,11.0,61,0.00,,,0.00,Wunderground v.1.15,2013-03-09 08:52:00,
2013-03-09 03:53:00,36.6,22.8,30.16,NE,53,8.0,15.0,57,0.00,,,0.00,Wunderground v.1.15,2013-03-09 08:53:00,
2013-03-09 03:56:00,36.6,22.8,30.16,NE,43,6.0,15.0,57,0.00,,,0.00,Wunderground v.1.15,2013-03-09 08:56:00,
2013-03-09 03:57:00,36.6,22.8,30.16,ENE,70,9.0,15.0,57,0.00,,,0.00,Wunderground v.1.15,2013-03-09 08:57:00,
2013-03-09 03:58:00,36.6,22.4,30.16,NE,43,10.0,16.0,56,0.00,,,0.00,Wunderground v.1.15,2013-03-09 08:58:00,
2013-03-09 04:01:00,36.5,22.7,30.16,ENE,63,9.0,11.0,57,0.00,,,0.00,Wunderground v.1.15,2013-03-09 09:01:00,
2013-03-09 04:02:00,36.5,22.7,30.16,ENE,74,4.0,11.0,57,0.00,,,0.00,Wunderground v.1.15,2013-03-09 09:02:00,
2013-03-09 04:03:00,36.5,22.7,30.16,ENE,71,8.0,11.0,57,0.00,,,0.00,Wunderground v.1.15,2013-03-09 09:03:00,
2013-03-09 04:07:00,36.4,23.4,30.16,East,79,8.0,12.0,59,0.00,,,0.00,Wunderground v.1.15,2013-03-09 09:07:00,
2013-03-09 04:08:00,36.5,22.7,30.16,East,95,5.0,12.0,57,0.00,,,0.00,Wunderground v.1.15,2013-03-09 09:08:00,
2013-03-09 04:09:00,36.5,22.7,30.16,ENE,61,5.0,12.0,57,0.00,,,0.00,Wunderground v.1.15,2013-03-09 09:09:00,
2013-03-09 04:12:00,36.4,22.6,30.16,NNE,15,9.0,10.0,57,0.00,,,0.00,Wunderground v.1.15,2013-03-09 09:12:00,
2013-03-09 04:14:00,36.3,22.9,30.16,NNE,15,8.0,14.0,58,0.00,,,0.00,Wunderground v.1.15,2013-03-09 09:14:00,
2013-03-09 04:15:00,36.2,22.8,30.17,ENE,72,5.0,14.0,58,0.00,,,0.00,Wunderground v.1.15,2013-03-09 09:15:00,
2013-03-09 04:17:00,36.2,22.4,30.17,North,355,2.0,14.0,57,0.00,,,0.00,Wunderground v.1.15,2013-03-09 09:17:00,
2013-03-09 04:18:00,36.2,22.8,30.17,ENE,74,3.0,14.0,58,0.00,,,0.00,Wunderground v.1.15,2013-03-09 09:18:00,
2013-03-09 04:19:00,36.2,22.8,30.17,East,82,6.0,14.0,58,0.00,,,0.00,Wunderground v.1.15,2013-03-09 09:19:00,
2013-03-09 04:20:00,36.2,22.8,30.17,NE,46,5.0,7.0,58,0.00,,,0.00,Wunderground v.1.15,2013-03-09 09:20:00,
2013-03-09 04:22:00,36.2,22.8,30.17,NE,44,16.0,16.0,58,0.00,,,0.00,Wunderground v.1.15,2013-03-09 09:22:00,
2013-03-09 04:24:00,36.1,22.3,30.17,NE,35,5.0,16.0,57,0.00,,,0.00,Wunderground v.1.15,2013-03-09 09:24:00,
2013-03-09 04:25:00,36.1,22.7,30.17,ENE,70,8.0,16.0,58,0.00,,,0.00,Wunderground v.1.15,2013-03-09 09:25:00,
2013-03-09 04:27:00,36.0,22.6,30.17,ENE,70,7.0,16.0,58,0.00,,,0.00,Wunderground v.1.15,2013-03-09 09:27:00,
2013-03-09 04:29:00,36.0,22.6,30.17,NNE,17,7.0,16.0,58,0.00,,,0.00,Wunderground v.1.15,2013-03-09 09:29:00,
2013-03-09 04:30:00,35.9,22.5,30.17,NE,50,6.0,8.0,58,0.00,,,0.00,Wunderground v.1.15,2013-03-09 09:30:00,
2013-03-09 04:33:00,35.9,22.5,30.17,East,79,6.0,12.0,58,0.00,,,0.00,Wunderground v.1.15,2013-03-09 09:33:00,
2013-03-09 04:34:00,35.8,22.5,30.17,NNE,29,7.0,12.0,58,0.00,,,0.00,Wunderground v.1.15,2013-03-09 09:34:00,
2013-03-09 04:35:00,35.8,22.5,30.17,ENE,57,9.0,14.0,58,0.00,,,0.00,Wunderground v.1.15,2013-03-09 09:35:00,
2013-03-09 04:38:00,35.8,22.9,30.17,ENE,70,9.0,14.0,59,0.00,,,0.00,Wunderground v.1.15,2013-03-09 09:38:00,
2013-03-09 04:39:00,35.7,22.4,30.17,ENE,78,11.0,14.0,58,0.00,,,0.00,Wunderground v.1.15,2013-03-09 09:39:00,
2013-03-09 04:41:00,35.7,22.4,30.17,NE,34,12.0,16.0,58,0.00,,,0.00,Wunderground v.1.15,2013-03-09 09:41:00,
2013-03-09 04:43:00,35.6,22.7,30.17,North,11,6.0,16.0,59,0.00,,,0.00,Wunderground v.1.15,2013-03-09 09:43:00,
2013-03-09 04:44:00,35.6,22.7,30.18,NNE,26,8.0,16.0,59,0.00,,,0.00,Wunderground v.1.15,2013-03-09 09:44:00,
2013-03-09 04:46:00,35.6,22.7,30.17,NE,51,20.0,20.0,59,0.00,,,0.00,Wunderground v.1.15,2013-03-09 09:46:00,
2013-03-09 04:48:00,35.5,22.6,30.18,ENE,77,5.0,20.0,59,0.00,,,0.00,Wunderground v.1.15,2013-03-09 09:48:00,
2013-03-09 04:49:00,35.4,22.9,30.18,NE,46,10.0,20.0,60,0.00,,,0.00,Wunderground v.1.15,2013-03-09 09:49:00,
2013-03-09 04:51:00,35.4,22.5,30.18,East,80,10.0,15.0,59,0.00,,,0.00,Wunderground v.1.15,2013-03-09 09:51:00,
2013-03-09 04:53:00,35.4,22.5,30.17,East,87,10.0,15.0,59,0.00,,,0.00,Wunderground v.1.15,2013-03-09 09:53:00,
2013-03-09 04:54:00,35.4,22.9,30.18,NNE,21,8.0,16.0,60,0.00,,,0.00,Wunderground v.1.15,2013-03-09 09:54:00,
2013-03-09 04:56:00,35.4,22.5,30.18,NE,38,6.0,16.0,59,0.00,,,0.00,Wunderground v.1.15,2013-03-09 09:56:00,
2013-03-09 04:57:00,35.3,22.4,30.17,ENE,63,7.0,16.0,59,0.00,,,0.00,Wunderground v.1.15,2013-03-09 09:57:00,
2013-03-09 04:58:00,35.3,22.4,30.18,ENE,70,13.0,16.0,59,0.00,,,0.00,Wunderground v.1.15,2013-03-09 09:58:00,
2013-03-09 05:00:00,35.3,22.4,30.18,NE,46,6.0,9.0,59,0.00,,,0.00,Wunderground v.1.15,2013-03-09 10:00:00,
2013-03-09 05:02:00,35.3,22.8,30.18,NE,54,13.0,13.0,60,0.00,,,0.00,Wunderground v.1.15,2013-03-09 10:02:00,
2013-03-09 05:03:00,35.3,22.8,30.18,ENE,74,10.0,14.0,60,0.00,,,0.00,Wunderground v.1.15,2013-03-09 10:03:00,
2013-03-09 05:04:00,35.3,22.8,30.18,ESE,107,9.0,14.0,60,0.00,,,0.00,Wunderground v.1.15,2013-03-09 10:04:00,
2013-03-09 05:05:00,35.3,22.4,30.18,ENE,67,8.0,14.0,59,0.00,,,0.00,Wunderground v.1.15,2013-03-09 10:05:00,
2013-03-09 05:07:00,35.3,22.4,30.18,North,355,9.0,19.0,59,0.00,,,0.00,Wunderground v.1.15,2013-03-09 10:07:00,
2013-03-09 05:09:00,35.3,22.8,30.19,NE,44,5.0,19.0,60,0.00,,,0.00,Wunderground v.1.15,2013-03-09 10:09:00,
2013-03-09 05:10:00,35.2,22.7,30.19,NNE,21,5.0,8.0,60,0.00,,,0.00,Wunderground v.1.15,2013-03-09 10:10:00,
2013-03-09 05:12:00,35.2,22.7,30.19,NE,35,7.0,9.0,60,0.00,,,0.00,Wunderground v.1.15,2013-03-09 10:12:00,
2013-03-09 05:14:00,35.2,22.7,30.19,North,5,3.0,15.0,60,0.00,,,0.00,Wunderground v.1.15,2013-03-09 10:14:00,
2013-03-09 05:15:00,35.2,22.7,30.19,ENE,57,5.0,15.0,60,0.00,,,0.00,Wunderground v.1.15,2013-03-09 10:15:00,
2013-03-09 05:18:00,35.1,22.6,30.19,East,80,15.0,17.0,60,0.00,,,0.00,Wunderground v.1.15,2013-03-09 10:18:00,
2013-03-09 05:19:00,35.1,22.6,30.19,East,80,15.0,17.0,60,0.00,,,0.00,Wunderground v.1.15,2013-03-09 10:19:00,
2013-03-09 05:20:00,35.1,22.6,30.19,East,80,15.0,15.0,60,0.00,,,0.00,Wunderground v.1.15,2013-03-09 10:20:00,
2013-03-09 05:23:00,35.0,22.5,30.19,ENE,69,7.0,15.0,60,0.00,,,0.00,Wunderground v.1.15,2013-03-09 10:23:00,
2013-03-09 05:25:00,35.0,22.5,30.19,NE,36,8.0,15.0,60,0.00,,,0.00,Wunderground v.1.15,2013-03-09 10:25:00,
2013-03-09 05:28:00,35.0,22.5,30.19,ENE,78,14.0,16.0,60,0.00,,,0.00,Wunderground v.1.15,2013-03-09 10:28:00,
2013-03-09 05:30:00,35.0,22.5,30.19,ENE,61,7.0,13.0,60,0.00,,,0.00,Wunderground v.1.15,2013-03-09 10:30:00,
2013-03-09 05:34:00,35.0,22.5,30.20,East,89,11.0,15.0,60,0.00,,,0.00,Wunderground v.1.15,2013-03-09 10:34:00,
2013-03-09 05:35:00,34.9,22.4,30.19,ENE,76,14.0,15.0,60,0.00,,,0.00,Wunderground v.1.15,2013-03-09 10:35:00,
2013-03-09 05:39:00,34.9,22.8,30.19,ENE,70,8.0,18.0,61,0.00,,,0.00,Wunderground v.1.15,2013-03-09 10:39:00,
2013-03-09 05:40:00,34.9,22.8,30.19,NE,55,7.0,9.0,61,0.00,,,0.00,Wunderground v.1.15,2013-03-09 10:40:00,
2013-03-09 05:41:00,34.9,22.8,30.19,ENE,65,4.0,9.0,61,0.00,,,0.00,Wunderground v.1.15,2013-03-09 10:41:00,
2013-03-09 05:44:00,34.8,22.3,30.19,NE,49,8.0,15.0,60,0.00,,,0.00,Wunderground v.1.15,2013-03-09 10:44:00,
2013-03-09 05:45:00,34.8,22.3,30.19,ENE,61,8.0,15.0,60,0.00,,,0.00,Wunderground v.1.15,2013-03-09 10:45:00,
2013-03-09 05:46:00,34.8,22.3,30.19,ENE,66,7.0,15.0,60,0.00,,,0.00,Wunderground v.1.15,2013-03-09 10:46:00,
2013-03-09 05:49:00,34.8,22.3,30.19,ENE,75,10.0,18.0,60,0.00,,,0.00,Wunderground v.1.15,2013-03-09 10:49:00,
2013-03-09 05:51:00,34.8,22.3,30.20,ENE,70,11.0,11.0,60,0.00,,,0.00,Wunderground v.1.15,2013-03-09 10:51:00,
2013-03-09 05:54:00,34.7,22.6,30.20,ENE,63,14.0,15.0,61,0.00,,,0.00,Wunderground v.1.15,2013-03-09 10:54:00,
2013-03-09 05:56:00,34.6,22.1,30.20,NE,53,9.0,15.0,60,0.00,,,0.00,Wunderground v.1.15,2013-03-09 10:56:00,
2013-03-09 06:00:00,34.6,22.1,30.20,NNE,23,5.0,8.0,60,0.00,,,0.00,Wunderground v.1.15,2013-03-09 11:00:00,
2013-03-09 06:01:00,34.6,22.1,30.20,ENE,68,5.0,9.0,60,0.00,,,0.00,Wunderground v.1.15,2013-03-09 11:01:00,
2013-03-09 06:05:00,34.6,22.9,30.21,NE,36,4.0,10.0,62,0.00,,,0.00,Wunderground v.1.15,2013-03-09 11:05:00,
2013-03-09 06:06:00,34.6,22.5,30.21,NNE,26,7.0,10.0,61,0.00,,,0.00,Wunderground v.1.15,2013-03-09 11:06:00,
2013-03-09 06:07:00,34.6,22.5,30.21,North,5,10.0,12.0,61,0.00,,,0.00,Wunderground v.1.15,2013-03-09 11:07:00,
2013-03-09 06:08:00,34.6,22.5,30.21,ENE,71,1.0,12.0,61,0.00,,,0.00,Wunderground v.1.15,2013-03-09 11:08:00,
2013-03-09 06:10:00,34.5,22.4,30.21,ENE,57,11.0,18.0,61,0.00,,,0.00,Wunderground v.1.15,2013-03-09 11:10:00,
2013-03-09 06:12:00,34.5,22.4,30.21,East,84,6.0,18.0,61,0.00,,,0.00,Wunderground v.1.15,2013-03-09 11:12:00,
2013-03-09 06:13:00,34.4,22.3,30.21,NE,38,5.0,18.0,61,0.00,,,0.00,Wunderground v.1.15,2013-03-09 11:13:00,
2013-03-09 06:16:00,34.3,22.2,30.21,NNE,22,7.0,18.0,61,0.00,,,0.00,Wunderground v.1.15,2013-03-09 11:16:00,
2013-03-09 06:17:00,34.3,22.6,30.21,East,86,2.0,18.0,62,0.00,,,0.00,Wunderground v.1.15,2013-03-09 11:17:00,
2013-03-09 06:18:00,34.3,23.0,30.21,East,86,2.0,18.0,63,0.00,,,0.00,Wunderground v.1.15,2013-03-09 11:18:00,
2013-03-09 06:21:00,34.4,22.7,30.21,NNE,32,6.0,9.0,62,0.00,,,0.00,Wunderground v.1.15,2013-03-09 11:21:00,
2013-03-09 06:22:00,34.5,22.8,30.21,ENE,72,9.0,10.0,62,0.00,,,0.00,Wunderground v.1.15,2013-03-09 11:22:00,
2013-03-09 06:23:00,34.5,22.8,30.21,ENE,61,4.0,10.0,62,0.00,,,0.00,Wunderground v.1.15,2013-03-09 11:23:00,
2013-03-09 06:24:00,34.5,22.8,30.21,ENE,65,4.0,12.0,62,0.00,,,0.00,Wunderground v.1.15,2013-03-09 11:24:00,
2013-03-09 06:27:00,34.6,22.9,30.21,East,92,11.0,12.0,62,0.00,,,0.00,Wunderground v.1.15,2013-03-09 11:27:00,
2013-03-09 06:28:00,34.6,22.5,30.21,ENE,59,10.0,13.0,61,0.00,,,0.00,Wunderground v.1.15,2013-03-09 11:28:00,
2013-03-09 06:29:00,34.6,22.5,30.21,ENE,66,13.0,14.0,61,0.00,,,0.00,Wunderground v.1.15,2013-03-09 11:29:00,
2013-03-09 06:32:00,34.6,22.9,30.22,ENE,69,5.0,7.0,62,0.00,,,0.00,Wunderground v.1.15,2013-03-09 11:32:00,
2013-03-09 06:33:00,34.7,23.0,30.22,NE,41,4.0,7.0,62,0.00,,,0.00,Wunderground v.1.15,2013-03-09 11:33:00,
2013-03-09 06:34:00,34.7,23.0,30.22,NE,48,5.0,8.0,62,0.00,,,0.00,Wunderground v.1.15,2013-03-09 11:34:00,
2013-03-09 06:37:00,34.8,22.7,30.22,NE,40,6.0,9.0,61,0.00,,,0.00,Wunderground v.1.15,2013-03-09 11:37:00,
2013-03-09 06:38:00,34.9,22.8,30.22,NNE,14,4.0,9.0,61,0.00,,,0.00,Wunderground v.1.15,2013-03-09 11:38:00,
2013-03-09 06:39:00,34.8,22.7,30.22,ENE,57,3.0,12.0,61,0.00,,,0.00,Wunderground v.1.15,2013-03-09 11:39:00,
2013-03-09 06:42:00,34.7,22.6,30.22,ENE,68,5.0,12.0,61,0.00,,,0.00,Wunderground v.1.15,2013-03-09 11:42:00,
2013-03-09 06:43:00,34.7,22.6,30.22,NNE,17,8.0,12.0,61,0.00,,,0.00,Wunderground v.1.15,2013-03-09 11:43:00,
2013-03-09 06:44:00,34.7,22.6,30.22,East,80,9.0,12.0,61,0.00,,,0.00,Wunderground v.1.15,2013-03-09 11:44:00,
2013-03-09 06:47:00,34.7,22.6,30.22,NE,56,7.0,12.0,61,0.00,,,0.00,Wunderground v.1.15,2013-03-09 11:47:00,
2013-03-09 06:48:00,34.7,23.0,30.22,ENE,76,4.0,12.0,62,0.00,,,0.00,Wunderground v.1.15,2013-03-09 11:48:00,
2013-03-09 06:49:00,34.7,23.0,30.22,ESE,103,4.0,12.0,62,0.00,,,0.00,Wunderground v.1.15,2013-03-09 11:49:00,
2013-03-09 06:53:00,34.9,22.8,30.22,NNE,22,4.0,11.0,61,0.00,,,0.00,Wunderground v.1.15,2013-03-09 11:53:00,
2013-03-09 06:54:00,35.0,22.9,30.22,NE,49,8.0,11.0,61,0.00,,,0.00,Wunderground v.1.15,2013-03-09 11:54:00,
2013-03-09 06:58:00,34.9,22.8,30.22,NE,55,4.0,11.0,61,0.00,,,0.00,Wunderground v.1.15,2013-03-09 11:58:00,
2013-03-09 06:59:00,35.0,23.3,30.22,North,5,5.0,11.0,62,0.00,,,0.00,Wunderground v.1.15,2013-03-09 11:59:00,
2013-03-09 07:03:00,35.1,23.0,30.23,NE,55,8.0,11.0,61,0.00,,,0.00,Wunderground v.1.15,2013-03-09 12:03:00,
2013-03-09 07:04:00,35.1,23.0,30.23,East,85,7.0,14.0,61,0.00,,,0.00,Wunderground v.1.15,2013-03-09 12:04:00,
2013-03-09 07:05:00,35.1,23.0,30.23,ENE,63,7.0,14.0,61,0.00,,,0.00,Wunderground v.1.15,2013-03-09 12:05:00,
2013-03-09 07:08:00,35.1,23.0,30.23,ENE,59,5.0,14.0,61,0.00,,,0.00,Wunderground v.1.15,2013-03-09 12:08:00,
2013-03-09 07:09:00,35.0,22.9,30.23,NE,53,8.0,14.0,61,0.00,,,0.00,Wunderground v.1.15,2013-03-09 12:09:00,
2013-03-09 07:10:00,35.1,23.0,30.23,ENE,70,4.0,9.0,61,0.00,,,0.00,Wunderground v.1.15,2013-03-09 12:10:00,
2013-03-09 07:14:00,35.0,22.9,30.24,NE,40,5.0,13.0,61,0.00,,,0.00,Wunderground v.1.15,2013-03-09 12:14:00,
2013-03-09 07:15:00,35.0,22.9,30.23,East,84,8.0,13.0,61,0.00,,,0.00,Wunderground v.1.15,2013-03-09 12:15:00,
2013-03-09 07:19:00,35.2,23.5,30.24,ENE,61,10.0,13.0,62,0.00,,,0.00,Wunderground v.1.15,2013-03-09 12:19:00,
2013-03-09 07:20:00,35.2,23.5,30.24,ENE,73,5.0,10.0,62,0.00,,,0.00,Wunderground v.1.15,2013-03-09 12:20:00,
2013-03-09 07:21:00,35.2,23.5,30.24,ENE,73,3.0,10.0,62,0.00,,,0.00,Wunderground v.1.15,2013-03-09 12:21:00,
2013-03-09 07:24:00,35.5,23.4,30.24,NE,50,5.0,12.0,61,0.00,,,0.00,Wunderground v.1.15,2013-03-09 12:24:00,
2013-03-09 07:26:00,35.5,23.8,30.24,ENE,66,4.0,12.0,62,0.00,,,0.00,Wunderground v.1.15,2013-03-09 12:26:00,
2013-03-09 07:29:00,35.7,23.6,30.24,East,82,7.0,19.0,61,0.00,,,0.00,Wunderground v.1.15,2013-03-09 12:29:00,
2013-03-09 07:31:00,35.7,23.2,30.24,NE,43,5.0,9.0,60,0.00,,,0.00,Wunderground v.1.15,2013-03-09 12:31:00,
2013-03-09 07:35:00,35.6,23.5,30.24,ENE,59,7.0,12.0,61,0.00,,,0.00,Wunderground v.1.15,2013-03-09 12:35:00,
2013-03-09 07:36:00,35.5,23.0,30.24,NNW,343,3.0,13.0,60,0.00,,,0.00,Wunderground v.1.15,2013-03-09 12:36:00,
2013-03-09 07:37:00,35.5,23.0,30.24,North,5,8.0,14.0,60,0.00,,,0.00,Wunderground v.1.15,2013-03-09 12:37:00,
2013-03-09 07:40:00,35.4,23.3,30.24,East,89,10.0,10.0,61,0.00,,,0.00,Wunderground v.1.15,2013-03-09 12:40:00,
2013-03-09 07:41:00,35.4,22.9,30.24,East,96,3.0,13.0,60,0.00,,,0.00,Wunderground v.1.15,2013-03-09 12:41:00,
2013-03-09 07:42:00,35.5,23.4,30.24,ENE,61,5.0,13.0,61,0.00,,,0.00,Wunderground v.1.15,2013-03-09 12:42:00,
2013-03-09 07:43:00,35.5,23.4,30.24,NE,36,8.0,13.0,61,0.00,,,0.00,Wunderground v.1.15,2013-03-09 12:43:00,
2013-03-09 07:45:00,35.6,23.5,30.25,ENE,59,5.0,13.0,61,0.00,,,0.00,Wunderground v.1.15,2013-03-09 12:45:00,
2013-03-09 07:46:00,35.6,23.5,30.25,NE,49,6.0,13.0,61,0.00,,,0.00,Wunderground v.1.15,2013-03-09 12:46:00,
2013-03-09 07:47:00,35.7,23.2,30.25,ENE,75,8.0,15.0,60,0.00,,,0.00,Wunderground v.1.15,2013-03-09 12:47:00,
2013-03-09 07:48:00,35.7,23.2,30.25,ENE,67,12.0,15.0,60,0.00,,,0.00,Wunderground v.1.15,2013-03-09 12:48:00,
2013-03-09 07:50:00,35.7,22.8,30.25,NE,48,4.0,7.0,59,0.00,,,0.00,Wunderground v.1.15,2013-03-09 12:50:00,
2013-03-09 07:51:00,35.7,23.2,30.25,ENE,70,8.0,8.0,60,0.00,,,0.00,Wunderground v.1.15,2013-03-09 12:51:00,
2013-03-09 07:52:00,35.8,23.3,30.25,East,101,14.0,14.0,60,0.00,,,0.00,Wunderground v.1.15,2013-03-09 12:52:00,
2013-03-09 07:53:00,35.9,23.4,30.25,ENE,59,5.0,14.0,60,0.00,,,0.00,Wunderground v.1.15,2013-03-09 12:53:00,
2013-03-09 07:55:00,36.0,23.8,30.25,NNE,29,3.0,14.0,61,0.00,,,0.00,Wunderground v.1.15,2013-03-09 12:55:00,
2013-03-09 07:56:00,36.1,23.5,30.25,NNE,22,7.0,14.0,60,0.00,,,0.00,Wunderground v.1.15,2013-03-09 12:56:00,
2013-03-09 07:57:00,36.1,23.5,30.25,NE,53,9.0,14.0,60,0.00,,,0.00,Wunderground v.1.15,2013-03-09 12:57:00,
2013-03-09 07:58:00,36.1,23.5,30.25,NE,38,3.0,14.0,60,0.00,,,0.00,Wunderground v.1.15,2013-03-09 12:58:00,
2013-03-09 08:00:00,36.2,24.0,30.25,ENE,78,5.0,6.0,61,0.00,,,0.00,Wunderground v.1.15,2013-03-09 13:00:00,
2013-03-09 08:01:00,36.3,24.1,30.25,NE,36,3.0,8.0,61,0.00,,,0.00,Wunderground v.1.15,2013-03-09 13:01:00,
2013-03-09 08:02:00,36.4,23.8,30.25,NE,54,5.0,8.0,60,0.00,,,0.00,Wunderground v.1.15,2013-03-09 13:02:00,
2013-03-09 08:04:00,36.4,23.8,30.25,NE,55,11.0,13.0,60,0.00,,,0.00,Wunderground v.1.15,2013-03-09 13:04:00,
2013-03-09 08:05:00,36.4,23.8,30.25,ENE,64,5.0,15.0,60,0.00,,,0.00,Wunderground v.1.15,2013-03-09 13:05:00,
2013-03-09 08:07:00,36.5,23.9,30.24,ENE,57,7.0,15.0,60,0.00,,,0.00,Wunderground v.1.15,2013-03-09 13:07:00,
2013-03-09 08:08:00,36.6,24.0,30.25,East,80,3.0,15.0,60,0.00,,,0.00,Wunderground v.1.15,2013-03-09 13:08:00,
2013-03-09 08:09:00,36.6,24.0,30.25,NNE,32,7.0,15.0,60,0.00,,,0.00,Wunderground v.1.15,2013-03-09 13:09:00,
2013-03-09 08:10:00,36.6,24.0,30.25,East,94,2.0,6.0,60,0.00,,,0.00,Wunderground v.1.15,2013-03-09 13:10:00,
2013-03-09 08:13:00,36.8,24.6,30.25,East,101,3.0,11.0,61,0.00,,,0.00,Wunderground v.1.15,2013-03-09 13:13:00,
2013-03-09 08:15:00,37.0,25.2,30.24,East,97,7.0,11.0,62,0.00,,,0.00,Wunderground v.1.15,2013-03-09 13:15:00,
2013-03-09 08:18:00,37.3,25.1,30.25,North,360,5.0,13.0,61,0.00,,,0.00,Wunderground v.1.15,2013-03-09 13:18:00,
2013-03-09 08:19:00,37.3,25.1,30.25,NNE,17,11.0,13.0,61,0.00,,,0.00,Wunderground v.1.15,2013-03-09 13:19:00,
2013-03-09 08:20:00,37.3,24.7,30.24,ENE,61,7.0,8.0,60,0.00,,,0.00,Wunderground v.1.15,2013-03-09 13:20:00,
2013-03-09 08:21:00,37.2,25.0,30.25,East,100,8.0,8.0,61,0.00,,,0.00,Wunderground v.1.15,2013-03-09 13:21:00,
2013-03-09 08:24:00,37.2,25.4,30.24,East,93,6.0,10.0,62,0.00,,,0.00,Wunderground v.1.15,2013-03-09 13:24:00,
2013-03-09 08:25:00,37.3,25.5,30.24,East,86,2.0,10.0,62,0.00,,,0.00,Wunderground v.1.15,2013-03-09 13:25:00,
2013-03-09 08:26:00,37.3,25.8,30.24,ESE,113,4.0,10.0,63,0.00,,,0.00,Wunderground v.1.15,2013-03-09 13:26:00,
2013-03-09 08:29:00,37.6,26.1,30.24,ESE,116,5.0,12.0,63,0.00,,,0.00,Wunderground v.1.15,2013-03-09 13:29:00,
2013-03-09 08:30:00,37.7,26.2,30.24,East,94,8.0,11.0,63,0.00,,,0.00,Wunderground v.1.15,2013-03-09 13:30:00,
2013-03-09 08:31:00,37.7,26.2,30.25,East,96,8.0,13.0,63,0.00,,,0.00,Wunderground v.1.15,2013-03-09 13:31:00,
2013-03-09 08:34:00,37.7,26.6,30.25,East,90,3.0,13.0,64,0.00,,,0.00,Wunderground v.1.15,2013-03-09 13:34:00,
2013-03-09 08:35:00,37.7,26.6,30.24,ENE,66,3.0,13.0,64,0.00,,,0.00,Wunderground v.1.15,2013-03-09 13:35:00,
2013-03-09 08:36:00,37.8,26.7,30.25,East,85,8.0,13.0,64,0.00,,,0.00,Wunderground v.1.15,2013-03-09 13:36:00,
2013-03-09 08:39:00,37.8,26.7,30.25,East,94,6.0,13.0,64,0.00,,,0.00,Wunderground v.1.15,2013-03-09 13:39:00,
2013-03-09 08:40:00,37.8,26.7,30.25,East,88,3.0,13.0,64,0.00,,,0.00,Wunderground v.1.15,2013-03-09 13:40:00,
2013-03-09 08:41:00,37.9,26.8,30.25,ESE,105,4.0,13.0,64,0.00,,,0.00,Wunderground v.1.15,2013-03-09 13:41:00,
2013-03-09 08:42:00,37.9,26.8,30.25,SSE,165,2.0,13.0,64,0.00,,,0.00,Wunderground v.1.15,2013-03-09 13:42:00,
2013-03-09 08:46:00,38.1,27.0,30.25,ENE,77,11.0,13.0,64,0.00,,,0.00,Wunderground v.1.15,2013-03-09 13:46:00,
2013-03-09 08:47:00,38.1,27.0,30.25,East,95,6.0,16.0,64,0.00,,,0.00,Wunderground v.1.15,2013-03-09 13:47:00,
2013-03-09 08:51:00,38.2,27.1,30.25,SE,146,8.0,10.0,64,0.00,,,0.00,Wunderground v.1.15,2013-03-09 13:51:00,
2013-03-09 08:52:00,38.2,27.1,30.25,SE,140,3.0,10.0,64,0.00,,,0.00,Wunderground v.1.15,2013-03-09 13:52:00,
2013-03-09 08:54:00,38.3,27.6,30.25,ENE,77,9.0,10.0,65,0.00,,,0.00,Wunderground v.1.15,2013-03-09 13:54:00,
2013-03-09 08:56:00,38.3,27.6,30.25,SE,126,6.0,10.0,65,0.00,,,0.00,Wunderground v.1.15,2013-03-09 13:56:00,
2013-03-09 08:57:00,38.3,27.6,30.25,ENE,65,11.0,14.0,65,0.00,,,0.00,Wunderground v.1.15,2013-03-09 13:57:00,
2013-03-09 09:00:00,38.2,27.5,30.25,ESE,122,5.0,6.0,65,0.00,,,0.00,Wunderground v.1.15,2013-03-09 14:00:00,
2013-03-09 09:01:00,38.3,27.6,30.25,SE,124,12.0,12.0,65,0.00,,,0.00,Wunderground v.1.15,2013-03-09 14:01:00,
2013-03-09 09:02:00,38.3,27.6,30.25,SSE,148,4.0,12.0,65,0.00,,,0.00,Wunderground v.1.15,2013-03-09 14:02:00,
2013-03-09 09:05:00,38.6,28.2,30.25,East,84,3.0,12.0,66,0.00,,,0.00,Wunderground v.1.15,2013-03-09 14:05:00,
2013-03-09 09:06:00,38.7,27.9,30.25,ESE,107,5.0,12.0,65,0.00,,,0.00,Wunderground v.1.15,2013-03-09 14:06:00,
2013-03-09 09:07:00,38.8,28.0,30.25,ENE,73,2.0,12.0,65,0.00,,,0.00,Wunderground v.1.15,2013-03-09 14:07:00,
2013-03-09 09:10:00,38.8,28.0,30.25,East,97,3.0,4.0,65,0.00,,,0.00,Wunderground v.1.15,2013-03-09 14:10:00,
2013-03-09 09:11:00,38.9,28.1,30.25,ENE,70,5.0,8.0,65,0.00,,,0.00,Wunderground v.1.15,2013-03-09 14:11:00,
2013-03-09 09:12:00,38.9,28.1,30.25,East,86,13.0,13.0,65,0.00,,,0.00,Wunderground v.1.15,2013-03-09 14:12:00,
2013-03-09 09:15:00,38.6,27.8,30.25,ENE,77,0.0,15.0,65,0.00,,,0.00,Wunderground v.1.15,2013-03-09 14:15:00,
2013-03-09 09:17:00,38.6,28.2,30.26,East,101,3.0,15.0,66,0.00,,,0.00,Wunderground v.1.15,2013-03-09 14:17:00,
2013-03-09 09:18:00,38.7,27.9,30.26,ESE,121,5.0,15.0,65,0.00,,,0.00,Wunderground v.1.15,2013-03-09 14:18:00,
2013-03-09 09:20:00,38.7,27.6,30.26,ENE,76,9.0,13.0,64,0.00,,,0.00,Wunderground v.1.15,2013-03-09 14:20:00,
2013-03-09 09:22:00,38.6,27.8,30.26,East,84,6.0,13.0,65,0.00,,,0.00,Wunderground v.1.15,2013-03-09 14:22:00,
2013-03-09 09:23:00,38.6,27.8,30.26,ESE,105,1.0,13.0,65,0.00,,,0.00,Wunderground v.1.15,2013-03-09 14:23:00,
2013-03-09 09:26:00,38.4,27.7,30.26,East,83,7.0,15.0,65,0.00,,,0.00,Wunderground v.1.15,2013-03-09 14:26:00,
2013-03-09 09:28:00,38.4,27.7,30.26,East,82,6.0,15.0,65,0.00,,,0.00,Wunderground v.1.15,2013-03-09 14:28:00,
2013-03-09 09:29:00,38.4,28.0,30.26,East,95,3.0,15.0,66,0.00,,,0.00,Wunderground v.1.15,2013-03-09 14:29:00,
2013-03-09 09:31:00,38.4,27.7,30.26,East,80,6.0,10.0,65,0.00,,,0.00,Wunderground v.1.15,2013-03-09 14:31:00,
2013-03-09 09:33:00,38.4,28.0,30.26,East,80,8.0,11.0,66,0.00,,,0.00,Wunderground v.1.15,2013-03-09 14:33:00,
2013-03-09 09:34:00,38.5,28.1,30.26,East,86,3.0,11.0,66,0.00,,,0.00,Wunderground v.1.15,2013-03-09 14:34:00,
2013-03-09 09:35:00,38.7,28.3,30.26,SE,126,2.0,11.0,66,0.00,,,0.00,Wunderground v.1.15,2013-03-09 14:35:00,
2013-03-09 09:36:00,38.8,28.8,30.26,SE,134,0.0,11.0,67,0.00,,,0.00,Wunderground v.1.15,2013-03-09 14:36:00,
2013-03-09 09:38:00,39.1,28.7,30.26,ESE,119,4.0,11.0,66,0.00,,,0.00,Wunderground v.1.15,2013-03-09 14:38:00,
2013-03-09 09:39:00,39.1,28.7,30.26,ESE,121,3.0,11.0,66,0.00,,,0.00,Wunderground v.1.15,2013-03-09 14:39:00,
2013-03-09 09:40:00,39.2,28.4,30.26,ENE,63,5.0,9.0,65,0.00,,,0.00,Wunderground v.1.15,2013-03-09 14:40:00,
2013-03-09 09:41:00,39.2,28.4,30.26,SE,134,3.0,9.0,65,0.00,,,0.00,Wunderground v.1.15,2013-03-09 14:41:00,
2013-03-09 09:43:00,39.3,28.9,30.26,SSE,150,7.0,9.0,66,0.00,,,0.00,Wunderground v.1.15,2013-03-09 14:43:00,
2013-03-09 09:44:00,39.3,28.9,30.26,SSE,166,2.0,9.0,66,0.00,,,0.00,Wunderground v.1.15,2013-03-09 14:44:00,
2013-03-09 09:45:00,39.4,28.6,30.26,SE,125,6.0,11.0,65,0.00,,,0.00,Wunderground v.1.15,2013-03-09 14:45:00,
2013-03-09 09:47:00,39.4,28.6,30.26,SE,127,5.0,11.0,65,0.00,,,0.00,Wunderground v.1.15,2013-03-09 14:47:00,
2013-03-09 09:49:00,39.4,28.6,30.26,ESE,121,9.0,11.0,65,0.00,,,0.00,Wunderground v.1.15,2013-03-09 14:49:00,
2013-03-09 09:51:00,39.4,28.6,30.26,South,172,5.0,9.0,65,0.00,,,0.00,Wunderground v.1.15,2013-03-09 14:51:00,
2013-03-09 09:52:00,39.4,29.0,30.26,SE,135,3.0,10.0,66,0.00,,,0.00,Wunderground v.1.15,2013-03-09 14:52:00,
2013-03-09 09:54:00,39.4,28.6,30.26,ENE,77,10.0,12.0,65,0.00,,,0.00,Wunderground v.1.15,2013-03-09 14:54:00,
2013-03-09 09:55:00,39.4,28.6,30.26,ENE,67,3.0,12.0,65,0.00,,,0.00,Wunderground v.1.15,2013-03-09 14:55:00,
2013-03-09 09:56:00,39.4,28.6,30.26,ESE,107,5.0,15.0,65,0.00,,,0.00,Wunderground v.1.15,2013-03-09 14:56:00,
2013-03-09 09:57:00,39.3,28.5,30.26,ENE,69,8.0,15.0,65,0.00,,,0.00,Wunderground v.1.15,2013-03-09 14:57:00,
2013-03-09 09:59:00,39.2,28.0,30.26,ENE,57,1.0,15.0,64,0.00,,,0.00,Wunderground v.1.15,2013-03-09 14:59:00,
2013-03-09 10:00:00,39.1,27.9,30.26,ENE,64,7.0,7.0,64,0.00,,,0.00,Wunderground v.1.15,2013-03-09 15:00:00,
2013-03-09 10:01:00,39.1,28.3,30.26,SE,124,1.0,7.0,65,0.00,,,0.00,Wunderground v.1.15,2013-03-09 15:01:00,
2013-03-09 10:03:00,39.2,28.8,30.26,ESE,115,1.0,7.0,66,0.00,,,0.00,Wunderground v.1.15,2013-03-09 15:03:00,
2013-03-09 10:04:00,39.3,28.9,30.26,ESE,117,7.0,13.0,66,0.00,,,0.00,Wunderground v.1.15,2013-03-09 15:04:00,
2013-03-09 10:05:00,39.4,28.6,30.26,ESE,122,1.0,13.0,65,0.00,,,0.00,Wunderground v.1.15,2013-03-09 15:05:00,
2013-03-09 10:06:00,39.5,28.7,30.26,SE,128,10.0,13.0,65,0.00,,,0.00,Wunderground v.1.15,2013-03-09 15:06:00,
2013-03-09 10:08:00,39.5,28.7,30.26,SSE,155,3.0,13.0,65,0.00,,,0.00,Wunderground v.1.15,2013-03-09 15:08:00,
2013-03-09 10:09:00,39.4,28.2,30.26,ENE,58,7.0,13.0,64,0.00,,,0.00,Wunderground v.1.15,2013-03-09 15:09:00,
2013-03-09 10:10:00,39.3,28.1,30.26,NE,50,8.0,9.0,64,0.00,,,0.00,Wunderground v.1.15,2013-03-09 15:10:00,
2013-03-09 10:12:00,39.2,28.8,30.26,East,101,7.0,9.0,66,0.00,,,0.00,Wunderground v.1.15,2013-03-09 15:12:00,
2013-03-09 10:13:00,39.2,28.8,30.26,East,96,5.0,9.0,66,0.00,,,0.00,Wunderground v.1.15,2013-03-09 15:13:00,
2013-03-09 10:15:00,39.2,28.8,30.26,NE,54,5.0,16.0,66,0.00,,,0.00,Wunderground v.1.15,2013-03-09 15:15:00,
2013-03-09 10:16:00,39.2,28.4,30.26,SE,138,8.0,16.0,65,0.00,,,0.00,Wunderground v.1.15,2013-03-09 15:16:00,
2013-03-09 10:18:00,39.0,28.6,30.26,ENE,76,8.0,16.0,66,0.00,,,0.00,Wunderground v.1.15,2013-03-09 15:18:00,
2013-03-09 10:20:00,39.0,28.6,30.26,ENE,78,7.0,11.0,66,0.00,,,0.00,Wunderground v.1.15,2013-03-09 15:20:00,
2013-03-09 10:21:00,39.0,28.6,30.26,SSE,155,2.0,11.0,66,0.00,,,0.00,Wunderground v.1.15,2013-03-09 15:21:00,
2013-03-09 10:23:00,39.0,28.6,30.26,ESE,109,2.0,11.0,66,0.00,,,0.00,Wunderground v.1.15,2013-03-09 15:23:00,
2013-03-09 10:25:00,39.1,29.1,30.26,East,88,2.0,11.0,67,0.00,,,0.00,Wunderground v.1.15,2013-03-09 15:25:00,
2013-03-09 10:26:00,39.2,28.8,30.26,ESE,121,3.0,11.0,66,0.00,,,0.00,Wunderground v.1.15,2013-03-09 15:26:00,
2013-03-09 10:28:00,39.3,29.3,30.26,East,95,7.0,11.0,67,0.00,,,0.00,Wunderground v.1.15,2013-03-09 15:28:00,
2013-03-09 10:29:00,39.4,29.3,30.26,ENE,69,3.0,11.0,67,0.00,,,0.00,Wunderground v.1.15,2013-03-09 15:29:00,
2013-03-09 10:30:00,39.5,29.8,30.26,NE,51,4.0,5.0,68,0.00,,,0.00,Wunderground v.1.15,2013-03-09 15:30:00,
2013-03-09 10:31:00,39.6,29.5,30.26,SE,144,1.0,7.0,67,0.00,,,0.00,Wunderground v.1.15,2013-03-09 15:31:00,
2013-03-09 10:33:00,39.7,29.3,30.26,ESE,110,3.0,11.0,66,0.00,,,0.00,Wunderground v.1.15,2013-03-09 15:33:00,
2013-03-09 10:34:00,39.7,29.6,30.26,ESE,102,8.0,11.0,67,0.00,,,0.00,Wunderground v.1.15,2013-03-09 15:34:00,
2013-03-09 10:35:00,39.7,29.6,30.26,SSE,159,3.0,11.0,67,0.00,,,0.00,Wunderground v.1.15,2013-03-09 15:35:00,
2013-03-09 10:36:00,39.8,29.7,30.26,ENE,63,8.0,11.0,67,0.00,,,0.00,Wunderground v.1.15,2013-03-09 15:36:00,
2013-03-09 10:38:00,39.9,29.8,30.26,SE,126,7.0,11.0,67,0.00,,,0.00,Wunderground v.1.15,2013-03-09 15:38:00,
2013-03-09 10:40:00,40.0,29.9,30.26,SE,129,4.0,4.0,67,0.00,,,0.00,Wunderground v.1.15,2013-03-09 15:40:00,
2013-03-09 10:41:00,40.0,29.6,30.26,ESE,111,7.0,12.0,66,0.00,,,0.00,Wunderground v.1.15,2013-03-09 15:41:00,
2013-03-09 10:43:00,40.0,29.6,30.26,ENE,77,10.0,12.0,66,0.00,,,0.00,Wunderground v.1.15,2013-03-09 15:43:00,
2013-03-09 10:45:00,40.0,29.6,30.26,ENE,60,8.0,12.0,66,0.00,,,0.00,Wunderground v.1.15,2013-03-09 15:45:00,
2013-03-09 10:47:00,39.8,29.0,30.26,ENE,76,4.0,15.0,65,0.00,,,0.00,Wunderground v.1.15,2013-03-09 15:47:00,
2013-03-09 10:49:00,39.7,28.9,30.26,East,81,1.0,15.0,65,0.00,,,0.00,Wunderground v.1.15,2013-03-09 15:49:00,
2013-03-09 10:50:00,39.7,28.9,30.27,East,95,1.0,6.0,65,0.00,,,0.00,Wunderground v.1.15,2013-03-09 15:50:00,
2013-03-09 10:52:00,39.8,28.6,30.27,East,98,6.0,8.0,64,0.00,,,0.00,Wunderground v.1.15,2013-03-09 15:52:00,
2013-03-09 10:54:00,39.8,29.0,30.27,ESE,119,9.0,14.0,65,0.00,,,0.00,Wunderground v.1.15,2013-03-09 15:54:00,
2013-03-09 10:55:00,39.9,28.7,30.27,ESE,111,9.0,14.0,64,0.00,,,0.00,Wunderground v.1.15,2013-03-09 15:55:00,
2013-03-09 10:57:00,40.0,28.8,30.27,SE,133,9.0,14.0,64,0.00,,,0.00,Wunderground v.1.15,2013-03-09 15:57:00,
2013-03-09 10:59:00,39.8,28.2,30.27,East,88,15.0,17.0,63,0.00,,,0.00,Wunderground v.1.15,2013-03-09 15:59:00,
2013-03-09 11:00:00,39.7,28.1,30.27,SE,134,7.0,7.0,63,0.00,,,0.00,Wunderground v.1.15,2013-03-09 16:00:00,
2013-03-09 11:01:00,39.7,28.1,30.27,ESE,123,9.0,9.0,63,0.00,,,0.00,Wunderground v.1.15,2013-03-09 16:01:00,
2013-03-09 11:03:00,39.6,28.0,30.27,East,92,5.0,14.0,63,0.00,,,0.00,Wunderground v.1.15,2013-03-09 16:03:00,
2013-03-09 11:04:00,39.5,28.7,30.27,ENE,78,2.0,14.0,65,0.00,,,0.00,Wunderground v.1.15,2013-03-09 16:04:00,
2013-03-09 11:06:00,39.7,28.5,30.27,East,97,7.0,14.0,64,0.00,,,0.00,Wunderground v.1.15,2013-03-09 16:06:00,
2013-03-09 11:08:00,39.9,28.3,30.27,East,101,6.0,14.0,63,0.00,,,0.00,Wunderground v.1.15,2013-03-09 16:08:00,
2013-03-09 11:09:00,39.9,27.9,30.27,SE,124,6.0,14.0,62,0.00,,,0.00,Wunderground v.1.15,2013-03-09 16:09:00,
2013-03-09 11:11:00,39.8,27.8,30.26,SSE,159,12.0,18.0,62,0.00,,,0.00,Wunderground v.1.15,2013-03-09 16:11:00,
2013-03-09 11:13:00,39.6,27.2,30.27,ESE,109,8.0,18.0,61,0.00,,,0.00,Wunderground v.1.15,2013-03-09 16:13:00,
2013-03-09 11:14:00,39.5,27.5,30.27,SE,128,5.0,18.0,62,0.00,,,0.00,Wunderground v.1.15,2013-03-09 16:14:00,
2013-03-09 11:17:00,39.4,27.8,30.26,ESE,105,9.0,18.0,63,0.00,,,0.00,Wunderground v.1.15,2013-03-09 16:17:00,
2013-03-09 11:19:00,39.5,27.5,30.27,East,101,11.0,18.0,62,0.00,,,0.00,Wunderground v.1.15,2013-03-09 16:19:00,
2013-03-09 11:20:00,39.5,27.5,30.27,ESE,110,10.0,10.0,62,0.00,,,0.00,Wunderground v.1.15,2013-03-09 16:20:00,
2013-03-09 11:22:00,39.5,27.9,30.27,ENE,69,5.0,11.0,63,0.00,,,0.00,Wunderground v.1.15,2013-03-09 16:22:00,
2013-03-09 11:23:00,39.5,27.5,30.27,East,81,2.0,11.0,62,0.00,,,0.00,Wunderground v.1.15,2013-03-09 16:23:00,
2013-03-09 11:24:00,39.6,28.0,30.27,East,94,5.0,11.0,63,0.00,,,0.00,Wunderground v.1.15,2013-03-09 16:24:00,
2013-03-09 11:25:00,39.6,28.0,30.27,SE,146,4.0,11.0,63,0.00,,,0.00,Wunderground v.1.15,2013-03-09 16:25:00,
2013-03-09 11:28:00,39.9,29.1,30.27,ESE,117,5.0,14.0,65,0.00,,,0.00,Wunderground v.1.15,2013-03-09 16:28:00,
2013-03-09 11:29:00,39.9,29.1,30.27,SE,139,0.0,14.0,65,0.00,,,0.00,Wunderground v.1.15,2013-03-09 16:29:00,
2013-03-09 11:30:00,39.9,29.1,30.27,East,91,11.0,11.0,65,0.00,,,0.00,Wunderground v.1.15,2013-03-09 16:30:00,
2013-03-09 11:33:00,40.0,29.9,30.27,ESE,119,5.0,15.0,67,0.00,,,0.00,Wunderground v.1.15,2013-03-09 16:33:00,
2013-03-09 11:34:00,40.0,29.9,30.27,East,101,6.0,15.0,67,0.00,,,0.00,Wunderground v.1.15,2013-03-09 16:34:00,
2013-03-09 11:35:00,40.0,29.9,30.27,ESE,115,10.0,15.0,67,0.00,,,0.00,Wunderground v.1.15,2013-03-09 16:35:00,
2013-03-09 11:36:00,40.0,29.6,30.27,SE,145,6.0,15.0,66,0.00,,,0.00,Wunderground v.1.15,2013-03-09 16:36:00,
2013-03-09 11:38:00,40.0,29.6,30.27,SSE,150,8.0,15.0,66,0.00,,,0.00,Wunderground v.1.15,2013-03-09 16:38:00,
2013-03-09 11:39:00,40.0,29.6,30.27,South,171,5.0,15.0,66,0.00,,,0.00,Wunderground v.1.15,2013-03-09 16:39:00,
2013-03-09 11:40:00,39.9,29.1,30.27,SE,135,10.0,10.0,65,0.00,,,0.00,Wunderground v.1.15,2013-03-09 16:40:00,
2013-03-09 11:41:00,39.9,29.1,30.27,SE,127,3.0,10.0,65,0.00,,,0.00,Wunderground v.1.15,2013-03-09 16:41:00,
2013-03-09 11:43:00,40.0,29.2,30.27,SE,139,5.0,11.0,65,0.00,,,0.00,Wunderground v.1.15,2013-03-09 16:43:00,
2013-03-09 11:44:00,40.0,29.2,30.27,SSE,154,4.0,11.0,65,0.00,,,0.00,Wunderground v.1.15,2013-03-09 16:44:00,
2013-03-09 11:45:00,40.0,29.2,30.27,SSE,150,4.0,11.0,65,0.00,,,0.00,Wunderground v.1.15,2013-03-09 16:45:00,
2013-03-09 11:46:00,40.1,29.3,30.27,ESE,114,1.0,12.0,65,0.00,,,0.00,Wunderground v.1.15,2013-03-09 16:46:00,
2013-03-09 11:49:00,40.4,29.6,30.27,East,100,9.0,12.0,65,0.00,,,0.00,Wunderground v.1.15,2013-03-09 16:49:00,
2013-03-09 11:50:00,40.5,29.7,30.27,East,84,7.0,12.0,65,0.00,,,0.00,Wunderground v.1.15,2013-03-09 16:50:00,
2013-03-09 11:51:00,40.5,29.3,30.27,ESE,120,5.0,10.0,64,0.00,,,0.00,Wunderground v.1.15,2013-03-09 16:51:00,
2013-03-09 11:54:00,40.6,30.1,30.27,ESE,120,2.0,10.0,66,0.00,,,0.00,Wunderground v.1.15,2013-03-09 16:54:00,
2013-03-09 11:55:00,40.6,30.1,30.27,East,95,7.0,10.0,66,0.00,,,0.00,Wunderground v.1.15,2013-03-09 16:55:00,
2013-03-09 11:57:00,40.7,29.5,30.27,SSE,151,6.0,12.0,64,0.00,,,0.00,Wunderground v.1.15,2013-03-09 16:57:00,
2013-03-09 11:59:00,40.8,29.6,30.27,SE,129,3.0,12.0,64,0.00,,,0.00,Wunderground v.1.15,2013-03-09 16:59:00,
2013-03-09 12:00:00,40.8,29.6,30.27,SE,129,3.0,5.0,64,0.00,,,0.00,Wunderground v.1.15,2013-03-09 17:00:00,
2013-03-09 12:02:00,41.1,30.2,30.27,SE,130,6.0,10.0,65,0.00,,,0.00,Wunderground v.1.15,2013-03-09 17:02:00,
2013-03-09 12:05:00,41.5,30.2,30.27,ESE,104,4.0,10.0,64,0.00,,,0.00,Wunderground v.1.15,2013-03-09 17:05:00,
2013-03-09 12:08:00,41.6,29.5,30.27,SE,146,3.0,10.0,62,0.00,,,0.00,Wunderground v.1.15,2013-03-09 17:08:00,
2013-03-09 12:10:00,41.6,29.1,30.27,ENE,77,7.0,10.0,61,0.00,,,0.00,Wunderground v.1.15,2013-03-09 17:10:00,
2013-03-09 12:13:00,41.5,28.6,30.27,SE,140,7.0,11.0,60,0.00,,,0.00,Wunderground v.1.15,2013-03-09 17:13:00,
2013-03-09 12:15:00,41.4,28.5,30.27,ESE,109,5.0,11.0,60,0.00,,,0.00,Wunderground v.1.15,2013-03-09 17:15:00,
2013-03-09 12:16:00,41.4,28.5,30.27,SE,136,6.0,13.0,60,0.00,,,0.00,Wunderground v.1.15,2013-03-09 17:16:00,
2013-03-09 12:19:00,41.3,28.4,30.27,ESE,120,5.0,13.0,60,0.00,,,0.00,Wunderground v.1.15,2013-03-09 17:19:00,
2013-03-09 12:20:00,41.4,28.5,30.27,SE,126,3.0,8.0,60,0.00,,,0.00,Wunderground v.1.15,2013-03-09 17:20:00,
2013-03-09 12:21:00,41.4,28.5,30.27,SSE,153,9.0,9.0,60,0.00,,,0.00,Wunderground v.1.15,2013-03-09 17:21:00,
2013-03-09 12:24:00,41.5,28.2,30.27,ESE,119,3.0,12.0,59,0.00,,,0.00,Wunderground v.1.15,2013-03-09 17:24:00,
2013-03-09 12:25:00,41.4,28.1,30.27,SE,134,8.0,12.0,59,0.00,,,0.00,Wunderground v.1.15,2013-03-09 17:25:00,
2013-03-09 12:26:00,41.4,28.1,30.27,SE,134,4.0,12.0,59,0.00,,,0.00,Wunderground v.1.15,2013-03-09 17:26:00,
2013-03-09 12:29:00,41.3,28.4,30.27,SE,139,8.0,14.0,60,0.00,,,0.00,Wunderground v.1.15,2013-03-09 17:29:00,
2013-03-09 12:31:00,41.3,28.4,30.27,East,101,6.0,9.0,60,0.00,,,0.00,Wunderground v.1.15,2013-03-09 17:31:00,
2013-03-09 12:32:00,41.3,28.0,30.27,SSE,158,5.0,9.0,59,0.00,,,0.00,Wunderground v.1.15,2013-03-09 17:32:00,
2013-03-09 12:34:00,41.4,28.5,30.27,SSE,163,5.0,9.0,60,0.00,,,0.00,Wunderground v.1.15,2013-03-09 17:34:00,
2013-03-09 12:36:00,41.5,28.6,30.27,SSE,157,3.0,12.0,60,0.00,,,0.00,Wunderground v.1.15,2013-03-09 17:36:00,
2013-03-09 12:37:00,41.6,28.7,30.27,East,86,7.0,12.0,60,0.00,,,0.00,Wunderground v.1.15,2013-03-09 17:37:00,
2013-03-09 12:40:00,41.6,28.7,30.27,SE,134,7.0,10.0,60,0.00,,,0.00,Wunderground v.1.15,2013-03-09 17:40:00,
2013-03-09 12:41:00,41.6,28.7,30.27,ESE,103,10.0,11.0,60,0.00,,,0.00,Wunderground v.1.15,2013-03-09 17:41:00,
2013-03-09 12:42:00,41.6,28.7,30.27,SE,134,7.0,13.0,60,0.00,,,0.00,Wunderground v.1.15,2013-03-09 17:42:00,
2013-03-09 12:45:00,41.8,28.5,30.26,SE,133,4.0,13.0,59,0.00,,,0.00,Wunderground v.1.15,2013-03-09 17:45:00,
2013-03-09 12:46:00,41.8,28.5,30.26,ESE,110,2.0,13.0,59,0.00,,,0.00,Wunderground v.1.15,2013-03-09 17:46:00,
2013-03-09 12:47:00,41.8,28.9,30.26,SE,130,4.0,13.0,60,0.00,,,0.00,Wunderground v.1.15,2013-03-09 17:47:00,
2013-03-09 12:51:00,42.1,29.6,30.27,SE,146,5.0,9.0,61,0.00,,,0.00,Wunderground v.1.15,2013-03-09 17:51:00,
2013-03-09 12:52:00,42.2,29.7,30.27,SE,146,5.0,9.0,61,0.00,,,0.00,Wunderground v.1.15,2013-03-09 17:52:00,
2013-03-09 12:56:00,42.1,29.6,30.27,ESE,115,5.0,10.0,61,0.00,,,0.00,Wunderground v.1.15,2013-03-09 17:56:00,
2013-03-09 12:57:00,42.2,29.3,30.26,SE,127,6.0,10.0,60,0.00,,,0.00,Wunderground v.1.15,2013-03-09 17:57:00,
2013-03-09 12:58:00,42.2,29.3,30.26,ESE,102,3.0,10.0,60,0.00,,,0.00,Wunderground v.1.15,2013-03-09 17:58:00,
2013-03-09 13:01:00,42.3,29.8,30.26,SSE,150,2.0,8.0,61,0.00,,,0.00,Wunderground v.1.15,2013-03-09 18:01:00,
2013-03-09 13:02:00,42.4,29.5,30.26,SE,128,9.0,9.0,60,0.00,,,0.00,Wunderground v.1.15,2013-03-09 18:02:00,
2013-03-09 13:04:00,42.4,29.5,30.26,SE,129,3.0,10.0,60,0.00,,,0.00,Wunderground v.1.15,2013-03-09 18:04:00,
2013-03-09 13:06:00,42.3,30.2,30.26,SE,128,3.0,11.0,62,0.00,,,0.00,Wunderground v.1.15,2013-03-09 18:06:00,
2013-03-09 13:08:00,42.3,31.0,30.26,ESE,121,7.0,11.0,64,0.00,,,0.00,Wunderground v.1.15,2013-03-09 18:08:00,
2013-03-09 13:09:00,42.0,30.7,30.26,SSE,154,8.0,13.0,64,0.00,,,0.00,Wunderground v.1.15,2013-03-09 18:09:00,
2013-03-09 13:11:00,41.9,31.0,30.26,South,170,3.0,8.0,65,0.00,,,0.00,Wunderground v.1.15,2013-03-09 18:11:00,
2013-03-09 13:12:00,41.9,31.0,30.26,SSE,155,7.0,8.0,65,0.00,,,0.00,Wunderground v.1.15,2013-03-09 18:12:00,
2013-03-09 13:13:00,41.8,30.9,30.26,SSE,163,6.0,9.0,65,0.00,,,0.00,Wunderground v.1.15,2013-03-09 18:13:00,
2013-03-09 13:14:00,41.8,30.5,30.26,SSE,151,5.0,11.0,64,0.00,,,0.00,Wunderground v.1.15,2013-03-09 18:14:00,
2013-03-09 13:17:00,41.7,30.4,30.26,SSE,153,6.0,11.0,64,0.00,,,0.00,Wunderground v.1.15,2013-03-09 18:17:00,
2013-03-09 13:19:00,41.8,30.5,30.26,ESE,107,10.0,11.0,64,0.00,,,0.00,Wunderground v.1.15,2013-03-09 18:19:00,
2013-03-09 13:20:00,41.6,30.3,30.26,SSE,158,8.0,10.0,64,0.00,,,0.00,Wunderground v.1.15,2013-03-09 18:20:00,
2013-03-09 13:22:00,41.5,30.6,30.26,ESE,119,2.0,10.0,65,0.00,,,0.00,Wunderground v.1.15,2013-03-09 18:22:00,
2013-03-09 13:23:00,41.4,30.9,30.26,South,186,3.0,10.0,66,0.00,,,0.00,Wunderground v.1.15,2013-03-09 18:23:00,
2013-03-09 13:24:00,41.5,31.0,30.26,SE,124,9.0,10.0,66,0.00,,,0.00,Wunderground v.1.15,2013-03-09 18:24:00,
2013-03-09 13:25:00,41.5,31.4,30.26,SE,140,3.0,10.0,67,0.00,,,0.00,Wunderground v.1.15,2013-03-09 18:25:00,
2013-03-09 13:27:00,41.6,31.8,30.26,SE,128,3.0,10.0,68,0.00,,,0.00,Wunderground v.1.15,2013-03-09 18:27:00,
2013-03-09 13:28:00,41.7,31.9,30.26,SE,132,1.0,10.0,68,0.00,,,0.00,Wunderground v.1.15,2013-03-09 18:28:00,
2013-03-09 13:29:00,41.8,32.0,30.26,ESE,112,7.0,10.0,68,0.00,,,0.00,Wunderground v.1.15,2013-03-09 18:29:00,
2013-03-09 13:30:00,41.9,31.7,30.26,SE,129,4.0,5.0,67,0.00,,,0.00,Wunderground v.1.15,2013-03-09 18:30:00,
2013-03-09 13:32:00,41.9,31.7,30.26,SSE,150,4.0,11.0,67,0.00,,,0.00,Wunderground v.1.15,2013-03-09 18:32:00,
2013-03-09 13:33:00,41.9,31.7,30.26,SSE,166,4.0,11.0,67,0.00,,,0.00,Wunderground v.1.15,2013-03-09 18:33:00,
2013-03-09 13:34:00,41.8,31.6,30.26,SSE,168,3.0,11.0,67,0.00,,,0.00,Wunderground v.1.15,2013-03-09 18:34:00,
2013-03-09 13:36:00,41.7,31.9,30.26,SSE,161,3.0,11.0,68,0.00,,,0.00,Wunderground v.1.15,2013-03-09 18:36:00,
2013-03-09 13:37:00,41.6,31.8,30.26,SSE,161,3.0,11.0,68,0.00,,,0.00,Wunderground v.1.15,2013-03-09 18:37:00,
2013-03-09 13:38:00,41.6,31.8,30.26,South,184,2.0,11.0,68,0.00,,,0.00,Wunderground v.1.15,2013-03-09 18:38:00,
2013-03-09 13:39:00,41.5,32.1,30.26,SE,140,5.0,11.0,69,0.00,,,0.00,Wunderground v.1.15,2013-03-09 18:39:00,
2013-03-09 13:41:00,41.4,32.0,30.26,SSE,159,6.0,12.0,69,0.00,,,0.00,Wunderground v.1.15,2013-03-09 18:41:00,
2013-03-09 13:42:00,41.3,31.5,30.26,SSE,161,5.0,12.0,68,0.00,,,0.00,Wunderground v.1.15,2013-03-09 18:42:00,
2013-03-09 13:43:00,41.3,31.9,30.26,SSE,147,5.0,12.0,69,0.00,,,0.00,Wunderground v.1.15,2013-03-09 18:43:00,
2013-03-09 13:44:00,41.3,31.9,30.26,SE,131,0.0,12.0,69,0.00,,,0.00,Wunderground v.1.15,2013-03-09 18:44:00,
2013-03-09 13:46:00,41.3,31.9,30.26,ESE,117,7.0,12.0,69,0.00,,,0.00,Wunderground v.1.15,2013-03-09 18:46:00,
2013-03-09 13:48:00,41.1,31.7,30.26,ESE,105,4.0,12.0,69,0.00,,,0.00,Wunderground v.1.15,2013-03-09 18:48:00,
2013-03-09 13:49:00,41.0,32.0,30.26,ESE,110,7.0,12.0,70,0.00,,,0.00,Wunderground v.1.15,2013-03-09 18:49:00,
2013-03-09 13:51:00,40.9,31.9,30.26,SE,127,4.0,10.0,70,0.00,,,0.00,Wunderground v.1.15,2013-03-09 18:51:00,
2013-03-09 13:53:00,40.9,31.9,30.26,SSE,158,4.0,10.0,70,0.00,,,0.00,Wunderground v.1.15,2013-03-09 18:53:00,
2013-03-09 13:55:00,40.9,32.2,30.26,SSE,147,5.0,10.0,71,0.00,,,0.00,Wunderground v.1.15,2013-03-09 18:55:00,
2013-03-09 13:57:00,40.9,32.2,30.26,SE,143,1.0,10.0,71,0.00,,,0.00,Wunderground v.1.15,2013-03-09 18:57:00,
2013-03-09 13:58:00,40.9,32.2,30.26,SE,143,0.0,10.0,71,0.00,,,0.00,Wunderground v.1.15,2013-03-09 18:58:00,
2013-03-09 14:01:00,41.1,32.4,30.26,SSE,155,9.0,9.0,71,0.00,,,0.00,Wunderground v.1.15,2013-03-09 19:01:00,
2013-03-09 14:02:00,41.1,32.1,30.26,SSE,154,8.0,13.0,70,0.00,,,0.00,Wunderground v.1.15,2013-03-09 19:02:00,
2013-03-09 14:03:00,41.1,31.7,30.26,SE,142,4.0,13.0,69,0.00,,,0.00,Wunderground v.1.15,2013-03-09 19:03:00,
2013-03-09 14:06:00,40.7,31.7,30.26,SSE,147,10.0,13.0,70,0.00,,,0.00,Wunderground v.1.15,2013-03-09 19:06:00,
2013-03-09 14:07:00,40.6,31.9,30.26,South,172,10.0,13.0,71,0.00,,,0.00,Wunderground v.1.15,2013-03-09 19:07:00,
2013-03-09 14:08:00,40.6,31.9,30.26,ESE,123,8.0,13.0,71,0.00,,,0.00,Wunderground v.1.15,2013-03-09 19:08:00,
2013-03-09 14:09:00,40.5,31.8,30.26,SSE,155,5.0,13.0,71,0.00,,,0.00,Wunderground v.1.15,2013-03-09 19:09:00,
2013-03-09 14:11:00,40.2,31.5,30.26,SE,135,7.0,11.0,71,0.00,,,0.00,Wunderground v.1.15,2013-03-09 19:11:00,
2013-03-09 14:12:00,40.1,31.4,30.26,SE,146,7.0,11.0,71,0.00,,,0.00,Wunderground v.1.15,2013-03-09 19:12:00,
2013-03-09 14:13:00,40.0,31.4,30.26,SSW,194,3.0,11.0,71,0.00,,,0.00,Wunderground v.1.15,2013-03-09 19:13:00,
2013-03-09 14:14:00,40.0,31.4,30.26,SE,142,6.0,11.0,71,0.00,,,0.00,Wunderground v.1.15,2013-03-09 19:14:00,
2013-03-09 14:16:00,40.0,31.7,30.26,SSE,160,2.0,11.0,72,0.00,,,0.00,Wunderground v.1.15,2013-03-09 19:16:00,
2013-03-09 14:18:00,40.1,31.8,30.26,SSE,160,4.0,11.0,72,0.00,,,0.00,Wunderground v.1.15,2013-03-09 19:18:00,
2013-03-09 14:19:00,40.1,31.8,30.26,ESE,122,2.0,11.0,72,0.00,,,0.00,Wunderground v.1.15,2013-03-09 19:19:00,
2013-03-09 14:22:00,40.3,32.0,30.26,SE,127,2.0,7.0,72,0.00,,,0.00,Wunderground v.1.15,2013-03-09 19:22:00,
2013-03-09 14:23:00,40.4,32.1,30.26,ENE,78,3.0,7.0,72,0.00,,,0.00,Wunderground v.1.15,2013-03-09 19:23:00,
2013-03-09 14:24:00,40.5,32.2,30.26,SE,128,4.0,7.0,72,0.00,,,0.00,Wunderground v.1.15,2013-03-09 19:24:00,
2013-03-09 14:27:00,40.5,31.8,30.26,SE,141,4.0,10.0,71,0.00,,,0.00,Wunderground v.1.15,2013-03-09 19:27:00,
2013-03-09 14:28:00,40.5,31.8,30.26,SSE,159,3.0,11.0,71,0.00,,,0.00,Wunderground v.1.15,2013-03-09 19:28:00,
2013-03-09 14:29:00,40.5,32.2,30.26,SE,132,7.0,11.0,72,0.00,,,0.00,Wunderground v.1.15,2013-03-09 19:29:00,
2013-03-09 14:30:00,40.5,31.8,30.26,SSE,147,3.0,8.0,71,0.00,,,0.00,Wunderground v.1.15,2013-03-09 19:30:00,
2013-03-09 14:32:00,40.3,31.6,30.26,ESE,111,7.0,10.0,71,0.00,,,0.00,Wunderground v.1.15,2013-03-09 19:32:00,
2013-03-09 14:33:00,40.2,31.9,30.26,SSE,153,1.0,10.0,72,0.00,,,0.00,Wunderground v.1.15,2013-03-09 19:33:00,
2013-03-09 14:34:00,40.2,31.9,30.26,ESE,111,8.0,10.0,72,0.00,,,0.00,Wunderground v.1.15,2013-03-09 19:34:00,
2013-03-09 14:36:00,40.1,33.5,30.26,SE,132,5.0,10.0,77,0.00,,,0.00,Wunderground v.1.15,2013-03-09 19:36:00,
2013-03-09 14:37:00,40.1,31.8,30.26,SSE,157,0.0,10.0,72,0.00,,,0.00,Wunderground v.1.15,2013-03-09 19:37:00,
2013-03-09 14:39:00,40.2,32.2,30.26,ESE,115,9.0,10.0,73,0.00,,,0.00,Wunderground v.1.15,2013-03-09 19:39:00,
2013-03-09 14:40:00,40.2,32.2,30.26,ESE,119,4.0,8.0,73,0.00,,,0.00,Wunderground v.1.15,2013-03-09 19:40:00,
2013-03-09 14:42:00,40.4,32.4,30.26,SE,139,2.0,8.0,73,0.00,,,0.00,Wunderground v.1.15,2013-03-09 19:42:00,
2013-03-09 14:44:00,40.5,32.2,30.26,ESE,114,10.0,12.0,72,0.00,,,0.00,Wunderground v.1.15,2013-03-09 19:44:00,
2013-03-09 14:45:00,40.5,31.8,30.26,SSE,159,9.0,12.0,71,0.00,,,0.00,Wunderground v.1.15,2013-03-09 19:45:00,
2013-03-09 14:47:00,40.4,31.7,30.26,SSE,165,5.0,12.0,71,0.00,,,0.00,Wunderground v.1.15,2013-03-09 19:47:00,
2013-03-09 14:48:00,40.4,31.7,30.26,SE,130,3.0,12.0,71,0.00,,,0.00,Wunderground v.1.15,2013-03-09 19:48:00,
2013-03-09 14:49:00,40.4,31.4,30.26,SSE,147,7.0,12.0,70,0.00,,,0.00,Wunderground v.1.15,2013-03-09 19:49:00,
2013-03-09 14:50:00,40.3,31.3,30.26,ESE,118,9.0,9.0,70,0.00,,,0.00,Wunderground v.1.15,2013-03-09 19:50:00,
2013-03-09 14:52:00,40.2,31.2,30.26,SSE,158,1.0,9.0,70,0.00,,,0.00,Wunderground v.1.15,2013-03-09 19:52:00,
2013-03-09 14:53:00,40.2,31.5,30.26,SE,146,6.0,9.0,71,0.00,,,0.00,Wunderground v.1.15,2013-03-09 19:53:00,
2013-03-09 14:54:00,40.2,31.5,30.26,ESE,123,4.0,9.0,71,0.00,,,0.00,Wunderground v.1.15,2013-03-09 19:54:00,
2013-03-09 14:56:00,40.2,31.5,30.26,ESE,113,4.0,9.0,71,0.00,,,0.00,Wunderground v.1.15,2013-03-09 19:56:00,
2013-03-09 14:57:00,40.3,31.6,30.26,SSE,160,4.0,9.0,71,0.00,,,0.00,Wunderground v.1.15,2013-03-09 19:57:00,
2013-03-09 14:59:00,40.3,31.6,30.26,ESE,121,2.0,9.0,71,0.00,,,0.00,Wunderground v.1.15,2013-03-09 19:59:00,
2013-03-09 15:01:00,40.4,31.7,30.26,ESE,122,2.0,6.0,71,0.00,,,0.00,Wunderground v.1.15,2013-03-09 20:01:00,
2013-03-09 15:03:00,40.4,31.7,30.27,SSE,163,5.0,8.0,71,0.00,,,0.00,Wunderground v.1.15,2013-03-09 20:03:00,
2013-03-09 15:04:00,40.4,31.7,30.26,ESE,123,10.0,11.0,71,0.00,,,0.00,Wunderground v.1.15,2013-03-09 20:04:00,
2013-03-09 15:05:00,40.4,31.7,30.26,ESE,118,10.0,11.0,71,0.00,,,0.00,Wunderground v.1.15,2013-03-09 20:05:00,
2013-03-09 15:06:00,40.3,32.0,30.26,SSE,150,1.0,11.0,72,0.00,,,0.00,Wunderground v.1.15,2013-03-09 20:06:00,
2013-03-09 15:09:00,40.3,32.0,30.27,SSE,148,3.0,12.0,72,0.00,,,0.00,Wunderground v.1.15,2013-03-09 20:09:00,
2013-03-09 15:10:00,40.4,32.1,30.26,East,97,6.0,9.0,72,0.00,,,0.00,Wunderground v.1.15,2013-03-09 20:10:00,
2013-03-09 15:11:00,40.3,31.6,30.27,SSE,157,6.0,13.0,71,0.00,,,0.00,Wunderground v.1.15,2013-03-09 20:11:00,
2013-03-09 15:14:00,40.2,31.9,30.27,SSE,147,6.0,13.0,72,0.00,,,0.00,Wunderground v.1.15,2013-03-09 20:14:00,
2013-03-09 15:15:00,40.2,31.9,30.27,SSE,150,3.0,13.0,72,0.00,,,0.00,Wunderground v.1.15,2013-03-09 20:15:00,
2013-03-09 15:17:00,40.1,31.8,30.27,ESE,116,7.0,13.0,72,0.00,,,0.00,Wunderground v.1.15,2013-03-09 20:17:00,
2013-03-09 15:19:00,40.1,32.1,30.27,SSE,152,5.0,13.0,73,0.00,,,0.00,Wunderground v.1.15,2013-03-09 20:19:00,
2013-03-09 15:20:00,40.2,32.2,30.27,ESE,122,11.0,11.0,73,0.00,,,0.00,Wunderground v.1.15,2013-03-09 20:20:00,
2013-03-09 15:21:00,40.2,32.6,30.27,ESE,117,7.0,11.0,74,0.00,,,0.00,Wunderground v.1.15,2013-03-09 20:21:00,
2013-03-09 15:22:00,40.2,32.2,30.27,ESE,119,9.0,11.0,73,0.00,,,0.00,Wunderground v.1.15,2013-03-09 20:22:00,
2013-03-09 15:24:00,40.1,32.5,30.27,ESE,122,1.0,11.0,74,0.00,,,0.00,Wunderground v.1.15,2013-03-09 20:24:00,
2013-03-09 15:26:00,40.1,32.5,30.27,SSE,157,4.0,11.0,74,0.00,,,0.00,Wunderground v.1.15,2013-03-09 20:26:00,
2013-03-09 15:27:00,40.1,32.1,30.27,SSE,148,7.0,11.0,73,0.00,,,0.00,Wunderground v.1.15,2013-03-09 20:27:00,
2013-03-09 15:30:00,40.1,32.1,30.27,SE,129,8.0,9.0,73,0.00,,,0.00,Wunderground v.1.15,2013-03-09 20:30:00,
2013-03-09 15:31:00,40.1,32.1,30.27,SSE,150,7.0,9.0,73,0.00,,,0.00,Wunderground v.1.15,2013-03-09 20:31:00,
2013-03-09 15:32:00,40.0,32.0,30.27,SE,141,4.0,9.0,73,0.00,,,0.00,Wunderground v.1.15,2013-03-09 20:32:00,
2013-03-09 15:35:00,40.0,32.0,30.27,SSE,150,6.0,11.0,73,0.00,,,0.00,Wunderground v.1.15,2013-03-09 20:35:00,
2013-03-09 15:36:00,40.1,32.1,30.27,SE,140,7.0,11.0,73,0.00,,,0.00,Wunderground v.1.15,2013-03-09 20:36:00,
2013-03-09 15:37:00,40.0,32.0,30.27,SE,144,6.0,11.0,73,0.00,,,0.00,Wunderground v.1.15,2013-03-09 20:37:00,
2013-03-09 15:41:00,40.0,32.0,30.27,SSE,155,3.0,9.0,73,0.00,,,0.00,Wunderground v.1.15,2013-03-09 20:41:00,
2013-03-09 15:42:00,39.9,31.9,30.27,SSE,148,4.0,9.0,73,0.00,,,0.00,Wunderground v.1.15,2013-03-09 20:42:00,
2013-03-09 15:46:00,40.0,32.4,30.27,South,172,4.0,9.0,74,0.00,,,0.00,Wunderground v.1.15,2013-03-09 20:46:00,
2013-03-09 15:47:00,40.0,32.4,30.27,SSE,148,0.0,9.0,74,0.00,,,0.00,Wunderground v.1.15,2013-03-09 20:47:00,
2013-03-09 15:48:00,40.0,32.4,30.27,SE,142,3.0,9.0,74,0.00,,,0.00,Wunderground v.1.15,2013-03-09 20:48:00,
2013-03-09 15:51:00,40.3,32.7,30.27,SSE,154,5.0,7.0,74,0.00,,,0.00,Wunderground v.1.15,2013-03-09 20:51:00,
2013-03-09 15:52:00,40.3,32.3,30.27,SE,125,0.0,7.0,73,0.00,,,0.00,Wunderground v.1.15,2013-03-09 20:52:00,
2013-03-09 15:53:00,40.3,32.3,30.27,SE,125,0.0,7.0,73,0.00,,,0.00,Wunderground v.1.15,2013-03-09 20:53:00,
2013-03-09 15:56:00,40.5,32.9,30.27,South,169,1.0,7.0,74,0.00,,,0.00,Wunderground v.1.15,2013-03-09 20:56:00,
2013-03-09 15:58:00,40.5,32.5,30.27,SSE,167,7.0,8.0,73,0.00,,,0.00,Wunderground v.1.15,2013-03-09 20:58:00,
2013-03-09 16:01:00,40.6,32.6,30.27,SSE,163,3.0,9.0,73,0.00,,,0.00,Wunderground v.1.15,2013-03-09 21:01:00,
2013-03-09 16:03:00,40.5,32.5,30.27,ESE,102,0.0,11.0,73,0.00,,,0.00,Wunderground v.1.15,2013-03-09 21:03:00,
2013-03-09 16:07:00,40.4,32.4,30.27,ESE,119,8.0,11.0,73,0.00,,,0.00,Wunderground v.1.15,2013-03-09 21:07:00,
2013-03-09 16:08:00,40.3,32.0,30.27,SSE,159,4.0,11.0,72,0.00,,,0.00,Wunderground v.1.15,2013-03-09 21:08:00,
2013-03-09 16:12:00,40.1,32.1,30.27,SE,144,2.0,10.0,73,0.00,,,0.00,Wunderground v.1.15,2013-03-09 21:12:00,
2013-03-09 16:13:00,40.0,32.4,30.27,SE,146,2.0,10.0,74,0.00,,,0.00,Wunderground v.1.15,2013-03-09 21:13:00,
2013-03-09 16:14:00,40.0,32.4,30.27,SE,131,4.0,10.0,74,0.00,,,0.00,Wunderground v.1.15,2013-03-09 21:14:00,
2013-03-09 16:17:00,39.9,32.3,30.27,SE,137,2.0,11.0,74,0.00,,,0.00,Wunderground v.1.15,2013-03-09 21:17:00,
2013-03-09 16:18:00,39.9,32.3,30.28,SSE,152,8.0,11.0,74,0.00,,,0.00,Wunderground v.1.15,2013-03-09 21:18:00,
2013-03-09 16:19:00,39.9,32.3,30.28,SSE,147,7.0,11.0,74,0.00,,,0.00,Wunderground v.1.15,2013-03-09 21:19:00,
2013-03-09 16:22:00,39.6,32.0,30.28,SSE,167,3.0,10.0,74,0.00,,,0.00,Wunderground v.1.15,2013-03-09 21:22:00,
2013-03-09 16:24:00,39.5,31.9,30.28,SSE,147,0.0,10.0,74,0.00,,,0.00,Wunderground v.1.15,2013-03-09 21:24:00,
2013-03-09 16:27:00,39.6,32.3,30.29,SSE,154,4.0,10.0,75,0.00,,,0.00,Wunderground v.1.15,2013-03-09 21:27:00,
2013-03-09 16:29:00,39.6,32.0,30.28,SSE,158,1.0,10.0,74,0.00,,,0.00,Wunderground v.1.15,2013-03-09 21:29:00,
2013-03-09 16:32:00,39.4,31.8,30.29,ESE,118,4.0,8.0,74,0.00,,,0.00,Wunderground v.1.15,2013-03-09 21:32:00,
2013-03-09 16:34:00,39.3,31.7,30.29,SE,140,4.0,8.0,74,0.00,,,0.00,Wunderground v.1.15,2013-03-09 21:34:00,
2013-03-09 16:38:00,39.5,32.2,30.29,SSE,155,0.0,8.0,75,0.00,,,0.00,Wunderground v.1.15,2013-03-09 21:38:00,
2013-03-09 16:39:00,39.7,32.4,30.29,SE,138,4.0,8.0,75,0.00,,,0.00,Wunderground v.1.15,2013-03-09 21:39:00,
2013-03-09 16:40:00,39.7,32.4,30.29,SE,138,0.0,3.0,75,0.00,,,0.00,Wunderground v.1.15,2013-03-09 21:40:00,
2013-03-09 16:43:00,40.1,32.8,30.29,SSE,165,3.0,10.0,75,0.00,,,0.00,Wunderground v.1.15,2013-03-09 21:43:00,
2013-03-09 16:44:00,40.1,32.5,30.29,SSE,157,5.0,10.0,74,0.00,,,0.00,Wunderground v.1.15,2013-03-09 21:44:00,
2013-03-09 16:45:00,40.1,32.5,30.29,SSE,150,1.0,10.0,74,0.00,,,0.00,Wunderground v.1.15,2013-03-09 21:45:00,
2013-03-09 16:48:00,40.0,32.0,30.29,SE,134,3.0,10.0,73,0.00,,,0.00,Wunderground v.1.15,2013-03-09 21:48:00,
2013-03-09 16:50:00,39.9,32.3,30.29,South,174,3.0,10.0,74,0.00,,,0.00,Wunderground v.1.15,2013-03-09 21:50:00,
2013-03-09 16:53:00,39.7,31.8,30.29,ESE,114,2.0,9.0,73,0.00,,,0.00,Wunderground v.1.15,2013-03-09 21:53:00,
2013-03-09 16:55:00,39.6,32.0,30.29,ESE,114,2.0,9.0,74,0.00,,,0.00,Wunderground v.1.15,2013-03-09 21:55:00,
2013-03-09 16:56:00,39.5,31.9,30.29,SE,140,7.0,9.0,74,0.00,,,0.00,Wunderground v.1.15,2013-03-09 21:56:00,
2013-03-09 16:58:00,39.4,31.8,30.29,SE,126,2.0,9.0,74,0.00,,,0.00,Wunderground v.1.15,2013-03-09 21:58:00,
2013-03-09 17:00:00,39.3,31.7,30.29,ESE,123,2.0,4.0,74,0.00,,,0.00,Wunderground v.1.15,2013-03-09 22:00:00,
2013-03-09 17:01:00,39.3,31.7,30.29,ESE,123,2.0,4.0,74,0.00,,,0.00,Wunderground v.1.15,2013-03-09 22:01:00,
2013-03-09 17:05:00,39.1,31.8,30.29,SE,131,0.0,9.0,75,0.00,,,0.00,Wunderground v.1.15,2013-03-09 22:05:00,
2013-03-09 17:06:00,39.1,31.8,30.30,SSE,159,4.0,9.0,75,0.00,,,0.00,Wunderground v.1.15,2013-03-09 22:06:00,
2013-03-09 17:07:00,39.1,31.8,30.30,SSE,155,2.0,9.0,75,0.00,,,0.00,Wunderground v.1.15,2013-03-09 22:07:00,
2013-03-09 17:10:00,39.1,32.2,30.30,SE,126,1.0,3.0,76,0.00,,,0.00,Wunderground v.1.15,2013-03-09 22:10:00,
2013-03-09 17:11:00,39.1,32.2,30.30,SE,126,2.0,3.0,76,0.00,,,0.00,Wunderground v.1.15,2013-03-09 22:11:00,
2013-03-09 17:12:00,39.2,32.3,30.30,SE,136,3.0,4.0,76,0.00,,,0.00,Wunderground v.1.15,2013-03-09 22:12:00,
2013-03-09 17:16:00,39.3,32.4,30.30,ESE,121,5.0,5.0,76,0.00,,,0.00,Wunderground v.1.15,2013-03-09 22:16:00,
2013-03-09 17:17:00,39.3,32.0,30.30,ESE,121,0.0,5.0,75,0.00,,,0.00,Wunderground v.1.15,2013-03-09 22:17:00,
2013-03-09 17:21:00,39.3,32.4,30.30,ESE,119,5.0,8.0,76,0.00,,,0.00,Wunderground v.1.15,2013-03-09 22:21:00,
2013-03-09 17:22:00,39.3,32.0,30.30,SE,138,0.0,8.0,75,0.00,,,0.00,Wunderground v.1.15,2013-03-09 22:22:00,
2013-03-09 17:23:00,39.2,32.3,30.30,SE,128,3.0,8.0,76,0.00,,,0.00,Wunderground v.1.15,2013-03-09 22:23:00,
2013-03-09 17:26:00,39.2,32.3,30.30,SE,127,3.0,8.0,76,0.00,,,0.00,Wunderground v.1.15,2013-03-09 22:26:00,
2013-03-09 17:27:00,39.3,32.4,30.30,SE,127,2.0,8.0,76,0.00,,,0.00,Wunderground v.1.15,2013-03-09 22:27:00,
2013-03-09 17:28:00,39.2,32.3,30.30,SE,138,0.0,8.0,76,0.00,,,0.00,Wunderground v.1.15,2013-03-09 22:28:00,
2013-03-09 17:32:00,39.2,32.3,30.30,SE,136,3.0,4.0,76,0.00,,,0.00,Wunderground v.1.15,2013-03-09 22:32:00,
2013-03-09 17:33:00,39.2,32.3,30.31,ESE,116,0.0,4.0,76,0.00,,,0.00,Wunderground v.1.15,2013-03-09 22:33:00,
2013-03-09 17:37:00,39.2,32.6,30.31,ESE,116,1.0,4.0,77,0.00,,,0.00,Wunderground v.1.15,2013-03-09 22:37:00,
2013-03-09 17:38:00,39.1,32.2,30.31,SE,128,0.0,5.0,76,0.00,,,0.00,Wunderground v.1.15,2013-03-09 22:38:00,
2013-03-09 17:42:00,39.0,32.1,30.31,ESE,123,2.0,5.0,76,0.00,,,0.00,Wunderground v.1.15,2013-03-09 22:42:00,
2013-03-09 17:43:00,38.9,32.0,30.31,ESE,123,2.0,5.0,76,0.00,,,0.00,Wunderground v.1.15,2013-03-09 22:43:00,
2013-03-09 17:44:00,38.9,32.0,30.31,ESE,123,1.0,5.0,76,0.00,,,0.00,Wunderground v.1.15,2013-03-09 22:44:00,
2013-03-09 17:47:00,38.8,32.2,30.31,SE,142,2.0,6.0,77,0.00,,,0.00,Wunderground v.1.15,2013-03-09 22:47:00,
2013-03-09 17:48:00,38.7,32.1,30.31,SE,138,0.0,6.0,77,0.00,,,0.00,Wunderground v.1.15,2013-03-09 22:48:00,
2013-03-09 17:49:00,38.7,32.1,30.31,SE,138,1.0,6.0,77,0.00,,,0.00,Wunderground v.1.15,2013-03-09 22:49:00,
2013-03-09 17:50:00,38.7,32.1,30.31,SE,138,2.0,4.0,77,0.00,,,0.00,Wunderground v.1.15,2013-03-09 22:50:00,
2013-03-09 17:53:00,38.5,31.9,30.31,SE,146,1.0,6.0,77,0.00,,,0.00,Wunderground v.1.15,2013-03-09 22:53:00,
2013-03-09 17:54:00,38.5,32.2,30.31,SE,125,4.0,6.0,78,0.00,,,0.00,Wunderground v.1.15,2013-03-09 22:54:00,
2013-03-09 17:56:00,38.4,32.1,30.31,SE,142,5.0,6.0,78,0.00,,,0.00,Wunderground v.1.15,2013-03-09 22:56:00,
2013-03-09 17:58:00,38.3,32.0,30.31,SE,131,1.0,9.0,78,0.00,,,0.00,Wunderground v.1.15,2013-03-09 22:58:00,
2013-03-09 17:59:00,38.3,32.0,30.31,SE,131,1.0,9.0,78,0.00,,,0.00,Wunderground v.1.15,2013-03-09 22:59:00,
2013-03-09 18:00:00,38.3,32.0,30.32,SE,131,0.0,3.0,78,0.00,,,0.00,Wunderground v.1.15,2013-03-09 23:00:00,
2013-03-09 18:01:00,38.4,32.1,30.32,SE,131,0.0,3.0,78,0.00,,,0.00,Wunderground v.1.15,2013-03-09 23:01:00,
2013-03-09 18:04:00,38.3,32.0,30.32,ESE,115,3.0,7.0,78,0.00,,,0.00,Wunderground v.1.15,2013-03-09 23:04:00,
2013-03-09 18:05:00,38.3,32.4,30.32,ESE,120,4.0,7.0,79,0.00,,,0.00,Wunderground v.1.15,2013-03-09 23:05:00,
2013-03-09 18:06:00,38.3,32.0,30.32,SE,139,0.0,7.0,78,0.00,,,0.00,Wunderground v.1.15,2013-03-09 23:06:00,
2013-03-09 18:09:00,38.2,32.3,30.32,SE,125,3.0,7.0,79,0.00,,,0.00,Wunderground v.1.15,2013-03-09 23:09:00,
2013-03-09 18:10:00,38.2,32.3,30.32,SE,128,3.0,4.0,79,0.00,,,0.00,Wunderground v.1.15,2013-03-09 23:10:00,
2013-03-09 18:11:00,38.1,32.2,30.32,ESE,115,3.0,4.0,79,0.00,,,0.00,Wunderground v.1.15,2013-03-09 23:11:00,
2013-03-09 18:14:00,38.1,32.2,30.32,SE,132,3.0,4.0,79,0.00,,,0.00,Wunderground v.1.15,2013-03-09 23:14:00,
2013-03-09 18:15:00,38.0,32.1,30.32,SE,143,2.0,8.0,79,0.00,,,0.00,Wunderground v.1.15,2013-03-09 23:15:00,
2013-03-09 18:16:00,38.0,32.1,30.32,SE,143,2.0,8.0,79,0.00,,,0.00,Wunderground v.1.15,2013-03-09 23:16:00,
2013-03-09 18:19:00,38.1,32.2,30.32,SE,128,3.0,8.0,79,0.00,,,0.00,Wunderground v.1.15,2013-03-09 23:19:00,
2013-03-09 18:21:00,38.1,32.2,30.32,SSE,148,5.0,7.0,79,0.00,,,0.00,Wunderground v.1.15,2013-03-09 23:21:00,
2013-03-09 18:22:00,38.1,32.2,30.32,SSE,157,4.0,7.0,79,0.00,,,0.00,Wunderground v.1.15,2013-03-09 23:22:00,
2013-03-09 18:25:00,38.0,32.1,30.32,SSE,151,2.0,7.0,79,0.00,,,0.00,Wunderground v.1.15,2013-03-09 23:25:00,
2013-03-09 18:26:00,37.9,31.7,30.32,ESE,119,7.0,8.0,78,0.00,,,0.00,Wunderground v.1.15,2013-03-09 23:26:00,
2013-03-09 18:27:00,37.9,32.0,30.32,ESE,121,4.0,8.0,79,0.00,,,0.00,Wunderground v.1.15,2013-03-09 23:27:00,
2013-03-09 18:30:00,37.9,32.3,30.32,SE,130,7.0,7.0,80,0.00,,,0.00,Wunderground v.1.15,2013-03-09 23:30:00,
2013-03-09 18:31:00,37.9,32.0,30.32,SE,136,2.0,8.0,79,0.00,,,0.00,Wunderground v.1.15,2013-03-09 23:31:00,
2013-03-09 18:32:00,37.9,32.3,30.32,ESE,121,2.0,8.0,80,0.00,,,0.00,Wunderground v.1.15,2013-03-09 23:32:00,
2013-03-09 18:35:00,37.9,32.3,30.32,SE,139,4.0,8.0,80,0.00,,,0.00,Wunderground v.1.15,2013-03-09 23:35:00,
2013-03-09 18:36:00,37.9,32.3,30.32,SE,140,0.0,8.0,80,0.00,,,0.00,Wunderground v.1.15,2013-03-09 23:36:00,
2013-03-09 18:37:00,38.0,32.4,30.32,SE,140,1.0,8.0,80,0.00,,,0.00,Wunderground v.1.15,2013-03-09 23:37:00,
2013-03-09 18:40:00,38.0,32.4,30.32,SE,126,5.0,5.0,80,0.00,,,0.00,Wunderground v.1.15,2013-03-09 23:40:00,
2013-03-09 18:41:00,38.0,32.4,30.32,ESE,123,5.0,6.0,80,0.00,,,0.00,Wunderground v.1.15,2013-03-09 23:41:00,
2013-03-09 18:42:00,38.0,32.4,30.32,ESE,120,2.0,6.0,80,0.00,,,0.00,Wunderground v.1.15,2013-03-09 23:42:00,
2013-03-09 18:43:00,38.0,32.4,30.32,ESE,120,2.0,6.0,80,0.00,,,0.00,Wunderground v.1.15,2013-03-09 23:43:00,
2013-03-09 18:46:00,38.0,32.4,30.32,SE,144,2.0,6.0,80,0.00,,,0.00,Wunderground v.1.15,2013-03-09 23:46:00,
2013-03-09 18:47:00,38.0,32.4,30.32,SE,141,0.0,6.0,80,0.00,,,0.00,Wunderground v.1.15,2013-03-09 23:47:00,
2013-03-09 18:48:00,38.0,32.4,30.32,SE,136,3.0,6.0,80,0.00,,,0.00,Wunderground v.1.15,2013-03-09 23:48:00,
2013-03-09 18:51:00,38.0,32.4,30.32,SSE,159,3.0,7.0,80,0.00,,,0.00,Wunderground v.1.15,2013-03-09 23:51:00,
2013-03-09 18:52:00,38.0,32.4,30.32,SSE,159,2.0,7.0,80,0.00,,,0.00,Wunderground v.1.15,2013-03-09 23:52:00,
2013-03-09 18:53:00,37.9,32.3,30.32,ESE,118,4.0,8.0,80,0.00,,,0.00,Wunderground v.1.15,2013-03-09 23:53:00,
2013-03-09 18:57:00,37.8,32.2,30.32,SE,131,5.0,8.0,80,0.00,,,0.00,Wunderground v.1.15,2013-03-09 23:57:00,
2013-03-09 18:58:00,37.9,32.6,30.32,SE,131,3.0,8.0,81,0.00,,,0.00,Wunderground v.1.15,2013-03-09 23:58:00,
2013-03-09 18:59:00,37.9,32.6,30.32,SE,126,2.0,8.0,81,0.00,,,0.00,Wunderground v.1.15,2013-03-09 23:59:00,
2013-03-09 19:02:00,37.9,32.6,30.32,SE,134,0.0,5.0,81,0.00,,,0.00,Wunderground v.1.15,2013-03-10 00:02:00,
2013-03-09 19:03:00,37.9,32.3,30.32,ESE,120,2.0,7.0,80,0.00,,,0.00,Wunderground v.1.15,2013-03-10 00:03:00,
2013-03-09 19:04:00,37.9,32.3,30.32,SE,127,6.0,7.0,80,0.00,,,0.00,Wunderground v.1.15,2013-03-10 00:04:00,
2013-03-09 19:08:00,37.8,32.2,30.32,ESE,116,5.0,9.0,80,0.00,,,0.00,Wunderground v.1.15,2013-03-10 00:08:00,
2013-03-09 19:09:00,37.8,32.2,30.32,ESE,116,3.0,9.0,80,0.00,,,0.00,Wunderground v.1.15,2013-03-10 00:09:00,
2013-03-09 19:13:00,37.7,32.1,30.32,ESE,119,4.0,9.0,80,0.00,,,0.00,Wunderground v.1.15,2013-03-10 00:13:00,
2013-03-09 19:14:00,37.7,32.1,30.32,SE,132,3.0,9.0,80,0.00,,,0.00,Wunderground v.1.15,2013-03-10 00:14:00,
2013-03-09 19:18:00,37.7,32.4,30.32,SSE,148,4.0,9.0,81,0.00,,,0.00,Wunderground v.1.15,2013-03-10 00:18:00,
2013-03-09 19:19:00,37.7,32.4,30.32,SE,134,3.0,9.0,81,0.00,,,0.00,Wunderground v.1.15,2013-03-10 00:19:00,
2013-03-09 19:20:00,37.7,32.4,30.32,ESE,120,7.0,7.0,81,0.00,,,0.00,Wunderground v.1.15,2013-03-10 00:20:00,
2013-03-09 19:23:00,37.8,32.5,30.32,SE,143,6.0,7.0,81,0.00,,,0.00,Wunderground v.1.15,2013-03-10 00:23:00,
2013-03-09 19:24:00,37.8,32.5,30.32,SE,129,4.0,7.0,81,0.00,,,0.00,Wunderground v.1.15,2013-03-10 00:24:00,
2013-03-09 19:26:00,37.8,32.2,30.32,SE,140,2.0,7.0,80,0.00,,,0.00,Wunderground v.1.15,2013-03-10 00:26:00,
2013-03-09 19:28:00,37.7,32.1,30.32,SSE,150,3.0,7.0,80,0.00,,,0.00,Wunderground v.1.15,2013-03-10 00:28:00,
2013-03-09 19:29:00,37.7,32.1,30.32,ESE,105,7.0,8.0,80,0.00,,,0.00,Wunderground v.1.15,2013-03-10 00:29:00,
2013-03-09 19:30:00,37.7,32.1,30.32,ESE,113,4.0,4.0,80,0.00,,,0.00,Wunderground v.1.15,2013-03-10 00:30:00,
2013-03-09 19:31:00,37.7,32.1,30.32,ESE,111,5.0,8.0,80,0.00,,,0.00,Wunderground v.1.15,2013-03-10 00:31:00,
2013-03-09 19:34:00,37.5,31.9,30.32,SSE,157,8.0,10.0,80,0.00,,,0.00,Wunderground v.1.15,2013-03-10 00:34:00,
2013-03-09 19:35:00,37.4,31.8,30.32,SE,142,3.0,10.0,80,0.00,,,0.00,Wunderground v.1.15,2013-03-10 00:35:00,
2013-03-09 19:36:00,37.4,31.8,30.32,ESE,114,5.0,10.0,80,0.00,,,0.00,Wunderground v.1.15,2013-03-10 00:36:00,
2013-03-09 19:39:00,37.3,32.0,30.32,SE,140,3.0,11.0,81,0.00,,,0.00,Wunderground v.1.15,2013-03-10 00:39:00,
2013-03-09 19:40:00,37.4,32.1,30.32,SSE,150,5.0,6.0,81,0.00,,,0.00,Wunderground v.1.15,2013-03-10 00:40:00,
2013-03-09 19:41:00,37.4,32.1,30.32,SE,144,4.0,7.0,81,0.00,,,0.00,Wunderground v.1.15,2013-03-10 00:41:00,
2013-03-09 19:44:00,37.4,32.1,30.32,ESE,109,2.0,10.0,81,0.00,,,0.00,Wunderground v.1.15,2013-03-10 00:44:00,
2013-03-09 19:46:00,37.4,32.1,30.32,ESE,109,2.0,10.0,81,0.00,,,0.00,Wunderground v.1.15,2013-03-10 00:46:00,
2013-03-09 19:49:00,37.4,32.4,30.32,SSE,156,5.0,10.0,82,0.00,,,0.00,Wunderground v.1.15,2013-03-10 00:49:00,
2013-03-09 19:50:00,37.4,32.4,30.33,SSE,161,4.0,7.0,82,0.00,,,0.00,Wunderground v.1.15,2013-03-10 00:50:00,
2013-03-09 19:51:00,37.3,32.0,30.33,SE,131,2.0,7.0,81,0.00,,,0.00,Wunderground v.1.15,2013-03-10 00:51:00,
2013-03-09 19:52:00,37.3,32.0,30.33,ESE,114,3.0,8.0,81,0.00,,,0.00,Wunderground v.1.15,2013-03-10 00:52:00,
2013-03-09 19:55:00,37.3,32.3,30.33,ESE,109,8.0,10.0,82,0.00,,,0.00,Wunderground v.1.15,2013-03-10 00:55:00,
2013-03-09 19:56:00,37.3,32.0,30.33,SE,126,6.0,10.0,81,0.00,,,0.00,Wunderground v.1.15,2013-03-10 00:56:00,
2013-03-09 19:57:00,37.3,32.3,30.33,SSE,150,4.0,10.0,82,0.00,,,0.00,Wunderground v.1.15,2013-03-10 00:57:00,
2013-03-09 20:00:00,37.4,32.4,30.33,SE,124,5.0,5.0,82,0.00,,,0.00,Wunderground v.1.15,2013-03-10 01:00:00,
2013-03-09 20:01:00,37.4,32.4,30.33,SSE,148,6.0,6.0,82,0.00,,,0.00,Wunderground v.1.15,2013-03-10 01:01:00,
2013-03-09 20:02:00,37.4,32.4,30.33,SE,127,1.0,7.0,82,0.00,,,0.00,Wunderground v.1.15,2013-03-10 01:02:00,
2013-03-09 20:05:00,37.5,32.5,30.33,SE,141,6.0,10.0,82,0.00,,,0.00,Wunderground v.1.15,2013-03-10 01:05:00,
2013-03-09 20:06:00,37.5,32.5,30.33,SSE,150,3.0,10.0,82,0.00,,,0.00,Wunderground v.1.15,2013-03-10 01:06:00,
2013-03-09 20:08:00,37.5,32.2,30.33,SSE,167,3.0,10.0,81,0.00,,,0.00,Wunderground v.1.15,2013-03-10 01:08:00,
2013-03-09 20:10:00,37.5,32.2,30.33,ESE,118,4.0,5.0,81,0.00,,,0.00,Wunderground v.1.15,2013-03-10 01:10:00,
2013-03-09 20:11:00,37.5,32.2,30.33,SSE,153,3.0,5.0,81,0.00,,,0.00,Wunderground v.1.15,2013-03-10 01:11:00,
2013-03-09 20:12:00,37.5,32.2,30.33,SE,134,3.0,7.0,81,0.00,,,0.00,Wunderground v.1.15,2013-03-10 01:12:00,
2013-03-09 20:13:00,37.5,32.5,30.33,ESE,109,5.0,7.0,82,0.00,,,0.00,Wunderground v.1.15,2013-03-10 01:13:00,
2013-03-09 20:15:00,37.5,32.2,30.33,ESE,118,2.0,9.0,81,0.00,,,0.00,Wunderground v.1.15,2013-03-10 01:15:00,
2013-03-09 20:17:00,37.5,32.2,30.33,SE,129,3.0,9.0,81,0.00,,,0.00,Wunderground v.1.15,2013-03-10 01:17:00,
2013-03-09 20:18:00,37.5,32.2,30.33,SE,134,4.0,9.0,81,0.00,,,0.00,Wunderground v.1.15,2013-03-10 01:18:00,
2013-03-09 20:20:00,37.5,32.2,30.33,SE,145,2.0,4.0,81,0.00,,,0.00,Wunderground v.1.15,2013-03-10 01:20:00,
2013-03-09 20:22:00,37.5,32.2,30.33,SE,128,3.0,8.0,81,0.00,,,0.00,Wunderground v.1.15,2013-03-10 01:22:00,
2013-03-09 20:24:00,37.5,32.2,30.33,SSE,150,2.0,8.0,81,0.00,,,0.00,Wunderground v.1.15,2013-03-10 01:24:00,
2013-03-09 20:26:00,37.5,32.2,30.33,SSE,151,4.0,8.0,81,0.00,,,0.00,Wunderground v.1.15,2013-03-10 01:26:00,
2013-03-09 20:27:00,37.4,32.4,30.33,ESE,122,2.0,8.0,82,0.00,,,0.00,Wunderground v.1.15,2013-03-10 01:27:00,
2013-03-09 20:28:00,37.5,32.5,30.33,ESE,122,1.0,8.0,82,0.00,,,0.00,Wunderground v.1.15,2013-03-10 01:28:00,
2013-03-09 20:29:00,37.5,32.5,30.33,ESE,122,2.0,8.0,82,0.00,,,0.00,Wunderground v.1.15,2013-03-10 01:29:00,
2013-03-09 20:31:00,37.6,32.6,30.33,SE,125,0.0,3.0,82,0.00,,,0.00,Wunderground v.1.15,2013-03-10 01:31:00,
2013-03-09 20:32:00,37.7,32.7,30.33,SE,125,0.0,3.0,82,0.00,,,0.00,Wunderground v.1.15,2013-03-10 01:32:00,
2013-03-09 20:33:00,37.7,32.7,30.33,SSE,151,2.0,4.0,82,0.00,,,0.00,Wunderground v.1.15,2013-03-10 01:33:00,
2013-03-09 20:34:00,37.7,32.7,30.33,SSE,149,0.0,4.0,82,0.00,,,0.00,Wunderground v.1.15,2013-03-10 01:34:00,
2013-03-09 20:36:00,37.9,32.9,30.33,East,94,1.0,7.0,82,0.00,,,0.00,Wunderground v.1.15,2013-03-10 01:36:00,
2013-03-09 20:38:00,37.9,32.6,30.34,ENE,75,2.0,7.0,81,0.00,,,0.00,Wunderground v.1.15,2013-03-10 01:38:00,
2013-03-09 20:39:00,38.0,32.7,30.33,ESE,106,0.0,7.0,81,0.00,,,0.00,Wunderground v.1.15,2013-03-10 01:39:00,
2013-03-09 20:42:00,38.0,32.7,30.33,ESE,105,2.0,4.0,81,0.00,,,0.00,Wunderground v.1.15,2013-03-10 01:42:00,
2013-03-09 20:43:00,38.0,32.7,30.34,ESE,106,3.0,4.0,81,0.00,,,0.00,Wunderground v.1.15,2013-03-10 01:43:00,
2013-03-09 20:44:00,38.0,32.7,30.34,SE,135,0.0,6.0,81,0.00,,,0.00,Wunderground v.1.15,2013-03-10 01:44:00,
2013-03-09 20:48:00,38.0,32.4,30.34,SE,135,1.0,6.0,80,0.00,,,0.00,Wunderground v.1.15,2013-03-10 01:48:00,
2013-03-09 20:49:00,38.1,32.8,30.34,SE,129,3.0,6.0,81,0.00,,,0.00,Wunderground v.1.15,2013-03-10 01:49:00,
2013-03-09 20:53:00,38.2,32.9,30.34,East,92,3.0,6.0,81,0.00,,,0.00,Wunderground v.1.15,2013-03-10 01:53:00,
2013-03-09 20:54:00,38.2,32.9,30.34,SE,125,3.0,7.0,81,0.00,,,0.00,Wunderground v.1.15,2013-03-10 01:54:00,
2013-03-09 20:58:00,38.3,32.7,30.34,East,99,3.0,7.0,80,0.00,,,0.00,Wunderground v.1.15,2013-03-10 01:58:00,
2013-03-09 20:59:00,38.3,32.7,30.34,East,99,0.0,7.0,80,0.00,,,0.00,Wunderground v.1.15,2013-03-10 01:59:00,
2013-03-09 21:00:00,38.3,32.7,30.34,East,99,5.0,5.0,80,0.00,,,0.00,Wunderground v.1.15,2013-03-10 02:00:00,
2013-03-09 21:03:00,38.2,32.6,30.34,East,98,0.0,6.0,80,0.00,,,0.00,Wunderground v.1.15,2013-03-10 02:03:00,
2013-03-09 21:04:00,38.2,32.9,30.34,East,97,3.0,6.0,81,0.00,,,0.00,Wunderground v.1.15,2013-03-10 02:04:00,
2013-03-09 21:05:00,38.3,33.0,30.34,East,85,3.0,6.0,81,0.00,,,0.00,Wunderground v.1.15,2013-03-10 02:05:00,
2013-03-09 21:08:00,38.2,32.6,30.35,East,90,6.0,6.0,80,0.00,,,0.00,Wunderground v.1.15,2013-03-10 02:08:00,
2013-03-09 21:10:00,38.2,32.6,30.34,East,96,6.0,6.0,80,0.00,,,0.00,Wunderground v.1.15,2013-03-10 02:10:00,
2013-03-09 21:14:00,38.1,32.8,30.35,ESE,110,2.0,8.0,81,0.00,,,0.00,Wunderground v.1.15,2013-03-10 02:14:00,
2013-03-09 21:15:00,38.0,32.4,30.35,East,80,3.0,8.0,80,0.00,,,0.00,Wunderground v.1.15,2013-03-10 02:15:00,
2013-03-09 21:16:00,37.9,32.3,30.34,East,80,2.0,8.0,80,0.00,,,0.00,Wunderground v.1.15,2013-03-10 02:16:00,
2013-03-09 21:19:00,37.8,32.5,30.35,NE,35,0.0,8.0,81,0.00,,,0.00,Wunderground v.1.15,2013-03-10 02:19:00,
2013-03-09 21:20:00,37.8,32.5,30.35,NE,35,0.0,3.0,81,0.00,,,0.00,Wunderground v.1.15,2013-03-10 02:20:00,
2013-03-09 21:21:00,37.8,32.8,30.35,NE,35,2.0,6.0,82,0.00,,,0.00,Wunderground v.1.15,2013-03-10 02:21:00,
2013-03-09 21:24:00,37.6,32.3,30.35,NE,36,1.0,6.0,81,0.00,,,0.00,Wunderground v.1.15,2013-03-10 02:24:00,
2013-03-09 21:26:00,37.5,32.5,30.35,NNE,30,2.0,6.0,82,0.00,,,0.00,Wunderground v.1.15,2013-03-10 02:26:00,
2013-03-09 21:29:00,37.3,32.0,30.35,NE,40,5.0,7.0,81,0.00,,,0.00,Wunderground v.1.15,2013-03-10 02:29:00,
2013-03-09 21:31:00,37.0,31.7,30.35,NE,34,7.0,7.0,81,0.00,,,0.00,Wunderground v.1.15,2013-03-10 02:31:00,
2013-03-09 21:34:00,36.6,31.6,30.35,NNE,32,0.0,8.0,82,0.00,,,0.00,Wunderground v.1.15,2013-03-10 02:34:00,
2013-03-09 21:35:00,36.6,31.6,30.35,NNE,32,0.0,8.0,82,0.00,,,0.00,Wunderground v.1.15,2013-03-10 02:35:00,
2013-03-09 21:36:00,36.7,32.0,30.35,NNE,32,3.0,8.0,83,0.00,,,0.00,Wunderground v.1.15,2013-03-10 02:36:00,
2013-03-09 21:37:00,36.7,32.0,30.36,NNE,32,4.0,8.0,83,0.00,,,0.00,Wunderground v.1.15,2013-03-10 02:37:00,
2013-03-09 21:39:00,36.7,32.0,30.36,NNE,23,4.0,8.0,83,0.00,,,0.00,Wunderground v.1.15,2013-03-10 02:39:00,
2013-03-09 21:40:00,36.7,32.0,30.36,NNW,342,6.0,6.0,83,0.00,,,0.00,Wunderground v.1.15,2013-03-10 02:40:00,
2013-03-09 21:42:00,36.5,31.5,30.36,NNW,336,3.0,6.0,82,0.00,,,0.00,Wunderground v.1.15,2013-03-10 02:42:00,
2013-03-09 21:44:00,36.3,31.3,30.36,NNW,336,6.0,6.0,82,0.00,,,0.00,Wunderground v.1.15,2013-03-10 02:44:00,
2013-03-09 21:46:00,36.2,31.2,30.36,NNW,336,3.0,6.0,82,0.00,,,0.00,Wunderground v.1.15,2013-03-10 02:46:00,
2013-03-09 21:47:00,36.1,31.4,30.36,NNW,336,0.0,6.0,83,0.00,,,0.00,Wunderground v.1.15,2013-03-10 02:47:00,
2013-03-09 21:48:00,36.1,31.7,30.36,NNW,338,2.0,6.0,84,0.00,,,0.00,Wunderground v.1.15,2013-03-10 02:48:00,
2013-03-09 21:49:00,36.2,31.8,30.36,North,355,1.0,6.0,84,0.00,,,0.00,Wunderground v.1.15,2013-03-10 02:49:00,
2013-03-09 21:51:00,36.3,31.9,30.36,North,355,2.0,4.0,84,0.00,,,0.00,Wunderground v.1.15,2013-03-10 02:51:00,
2013-03-09 21:52:00,36.4,32.0,30.36,North,355,4.0,7.0,84,0.00,,,0.00,Wunderground v.1.15,2013-03-10 02:52:00,
2013-03-09 21:55:00,36.4,31.7,30.36,North,355,2.0,7.0,83,0.00,,,0.00,Wunderground v.1.15,2013-03-10 02:55:00,
2013-03-09 21:56:00,36.4,31.7,30.35,North,355,2.0,7.0,83,0.00,,,0.00,Wunderground v.1.15,2013-03-10 02:56:00,
2013-03-09 21:57:00,36.4,31.7,30.35,North,355,4.0,7.0,83,0.00,,,0.00,Wunderground v.1.15,2013-03-10 02:57:00,
2013-03-09 22:00:00,36.4,31.7,30.35,North,355,0.0,3.0,83,0.00,,,0.00,Wunderground v.1.15,2013-03-10 03:00:00,
2013-03-09 22:01:00,36.4,31.7,30.35,North,355,2.0,3.0,83,0.00,,,0.00,Wunderground v.1.15,2013-03-10 03:01:00,
2013-03-09 22:02:00,36.4,31.7,30.35,North,355,1.0,3.0,83,0.00,,,0.00,Wunderground v.1.15,2013-03-10 03:02:00,
2013-03-09 22:03:00,36.4,31.7,30.35,North,355,2.0,3.0,83,0.00,,,0.00,Wunderground v.1.15,2013-03-10 03:03:00,
2013-03-09 22:05:00,36.5,32.1,30.35,North,355,0.0,3.0,84,0.00,,,0.00,Wunderground v.1.15,2013-03-10 03:05:00,
2013-03-09 22:06:00,36.5,32.1,30.35,North,355,0.0,3.0,84,0.00,,,0.00,Wunderground v.1.15,2013-03-10 03:06:00,
2013-03-09 22:07:00,36.6,31.9,30.35,North,355,0.0,3.0,83,0.00,,,0.00,Wunderground v.1.15,2013-03-10 03:07:00,
2013-03-09 22:08:00,36.6,31.9,30.35,North,355,1.0,3.0,83,0.00,,,0.00,Wunderground v.1.15,2013-03-10 03:08:00,
2013-03-09 22:11:00,36.8,32.1,30.35,North,355,0.0,2.0,83,0.00,,,0.00,Wunderground v.1.15,2013-03-10 03:11:00,
2013-03-09 22:12:00,36.9,32.2,30.34,North,355,0.0,2.0,83,0.00,,,0.00,Wunderground v.1.15,2013-03-10 03:12:00,
2013-03-09 22:13:00,36.9,32.2,30.34,North,355,0.0,2.0,83,0.00,,,0.00,Wunderground v.1.15,2013-03-10 03:13:00,
2013-03-09 22:16:00,37.4,33.0,30.34,North,355,0.0,2.0,84,0.00,,,0.00,Wunderground v.1.15,2013-03-10 03:16:00,
2013-03-09 22:17:00,37.5,32.8,30.34,North,355,3.0,3.0,83,0.00,,,0.00,Wunderground v.1.15,2013-03-10 03:17:00,
2013-03-09 22:18:00,37.6,32.9,30.34,ENE,59,4.0,7.0,83,0.00,,,0.00,Wunderground v.1.15,2013-03-10 03:18:00,
2013-03-09 22:21:00,37.8,32.8,30.34,ENE,59,1.0,3.0,82,0.00,,,0.00,Wunderground v.1.15,2013-03-10 03:21:00,
2013-03-09 22:22:00,37.8,32.8,30.34,ENE,60,0.0,3.0,82,0.00,,,0.00,Wunderground v.1.15,2013-03-10 03:22:00,
2013-03-09 22:23:00,37.9,32.9,30.34,ENE,60,0.0,3.0,82,0.00,,,0.00,Wunderground v.1.15,2013-03-10 03:23:00,
2013-03-09 22:26:00,38.0,32.4,30.34,ENE,60,3.0,7.0,80,0.00,,,0.00,Wunderground v.1.15,2013-03-10 03:26:00,
2013-03-09 22:27:00,38.0,32.4,30.34,ENE,60,3.0,7.0,80,0.00,,,0.00,Wunderground v.1.15,2013-03-10 03:27:00,
2013-03-09 22:28:00,38.0,32.4,30.34,ENE,60,0.0,7.0,80,0.00,,,0.00,Wunderground v.1.15,2013-03-10 03:28:00,
2013-03-09 22:31:00,38.1,32.5,30.34,ENE,60,3.0,5.0,80,0.00,,,0.00,Wunderground v.1.15,2013-03-10 03:31:00,
2013-03-09 22:32:00,38.2,32.6,30.34,ENE,60,3.0,5.0,80,0.00,,,0.00,Wunderground v.1.15,2013-03-10 03:32:00,
2013-03-09 22:33:00,38.2,32.6,30.34,ENE,60,1.0,5.0,80,0.00,,,0.00,Wunderground v.1.15,2013-03-10 03:33:00,
2013-03-09 22:36:00,38.3,33.0,30.34,ENE,64,0.0,5.0,81,0.00,,,0.00,Wunderground v.1.15,2013-03-10 03:36:00,
2013-03-09 22:37:00,38.3,33.0,30.34,ENE,64,2.0,5.0,81,0.00,,,0.00,Wunderground v.1.15,2013-03-10 03:37:00,
2013-03-09 22:38:00,38.3,33.0,30.34,ENE,64,0.0,5.0,81,0.00,,,0.00,Wunderground v.1.15,2013-03-10 03:38:00,
2013-03-09 22:39:00,38.3,33.0,30.34,ENE,64,0.0,5.0,81,0.00,,,0.00,Wunderground v.1.15,2013-03-10 03:39:00,
2013-03-09 22:41:00,38.4,32.8,30.34,ENE,67,0.0,2.0,80,0.00,,,0.00,Wunderground v.1.15,2013-03-10 03:41:00,
2013-03-09 22:43:00,38.4,32.8,30.34,ENE,67,0.0,2.0,80,0.00,,,0.00,Wunderground v.1.15,2013-03-10 03:43:00,
2013-03-09 22:44:00,38.4,32.8,30.34,ENE,67,0.0,2.0,80,0.00,,,0.00,Wunderground v.1.15,2013-03-10 03:44:00,
2013-03-09 22:47:00,38.4,32.5,30.34,ENE,69,0.0,5.0,79,0.00,,,0.00,Wunderground v.1.15,2013-03-10 03:47:00,
2013-03-09 22:48:00,38.5,32.9,30.34,ENE,69,0.0,5.0,80,0.00,,,0.00,Wunderground v.1.15,2013-03-10 03:48:00,
2013-03-09 22:49:00,38.5,32.9,30.34,ENE,69,1.0,5.0,80,0.00,,,0.00,Wunderground v.1.15,2013-03-10 03:49:00,
2013-03-09 22:52:00,38.6,32.6,30.34,ENE,69,0.0,2.0,79,0.00,,,0.00,Wunderground v.1.15,2013-03-10 03:52:00,
2013-03-09 22:53:00,38.7,32.7,30.34,ENE,69,0.0,2.0,79,0.00,,,0.00,Wunderground v.1.15,2013-03-10 03:53:00,
2013-03-09 22:54:00,38.7,32.7,30.34,ENE,69,0.0,2.0,79,0.00,,,0.00,Wunderground v.1.15,2013-03-10 03:54:00,
2013-03-09 22:57:00,38.8,32.8,30.34,ENE,69,0.0,2.0,79,0.00,,,0.00,Wunderground v.1.15,2013-03-10 03:57:00,
2013-03-09 22:58:00,38.9,32.9,30.34,ENE,69,0.0,2.0,79,0.00,,,0.00,Wunderground v.1.15,2013-03-10 03:58:00,
2013-03-09 22:59:00,39.0,33.4,30.34,ENE,69,2.0,2.0,80,0.00,,,0.00,Wunderground v.1.15,2013-03-10 03:59:00,
2013-03-09 23:02:00,39.0,32.7,30.34,ENE,69,0.0,4.0,78,0.00,,,0.00,Wunderground v.1.15,2013-03-10 04:02:00,
2013-03-09 23:04:00,39.0,32.7,30.34,ENE,69,0.0,4.0,78,0.00,,,0.00,Wunderground v.1.15,2013-03-10 04:04:00,
2013-03-09 23:05:00,39.0,33.0,30.34,ENE,69,0.0,4.0,79,0.00,,,0.00,Wunderground v.1.15,2013-03-10 04:05:00,
2013-03-09 23:08:00,39.1,32.8,30.34,ENE,69,0.0,4.0,78,0.00,,,0.00,Wunderground v.1.15,2013-03-10 04:08:00,
2013-03-09 23:09:00,39.1,32.8,30.34,ENE,69,0.0,4.0,78,0.00,,,0.00,Wunderground v.1.15,2013-03-10 04:09:00,
2013-03-09 23:10:00,39.1,33.1,30.34,ENE,69,0.0,1.0,79,0.00,,,0.00,Wunderground v.1.15,2013-03-10 04:10:00,
2013-03-09 23:14:00,38.8,32.2,30.35,ENE,64,3.0,7.0,77,0.00,,,0.00,Wunderground v.1.15,2013-03-10 04:14:00,
2013-03-09 23:15:00,38.6,32.0,30.35,NE,48,3.0,7.0,77,0.00,,,0.00,Wunderground v.1.15,2013-03-10 04:15:00,
2013-03-09 23:19:00,37.9,31.7,30.35,NE,47,4.0,7.0,78,0.00,,,0.00,Wunderground v.1.15,2013-03-10 04:19:00,
2013-03-09 23:20:00,37.8,31.6,30.35,NE,46,4.0,4.0,78,0.00,,,0.00,Wunderground v.1.15,2013-03-10 04:20:00,
2013-03-09 23:24:00,37.0,31.1,30.35,NE,45,1.0,6.0,79,0.00,,,0.00,Wunderground v.1.15,2013-03-10 04:24:00,
2013-03-09 23:25:00,36.9,31.3,30.35,NE,45,5.0,6.0,80,0.00,,,0.00,Wunderground v.1.15,2013-03-10 04:25:00,
2013-03-09 23:29:00,36.7,31.7,30.35,NE,44,4.0,6.0,82,0.00,,,0.00,Wunderground v.1.15,2013-03-10 04:29:00,
2013-03-09 23:30:00,36.6,31.6,30.35,NE,44,1.0,4.0,82,0.00,,,0.00,Wunderground v.1.15,2013-03-10 04:30:00,
2013-03-09 23:34:00,36.5,31.5,30.35,NE,44,2.0,4.0,82,0.00,,,0.00,Wunderground v.1.15,2013-03-10 04:34:00,
2013-03-09 23:35:00,36.5,31.5,30.35,NE,40,4.0,8.0,82,0.00,,,0.00,Wunderground v.1.15,2013-03-10 04:35:00,
2013-03-09 23:36:00,36.4,31.1,30.35,NE,40,3.0,8.0,81,0.00,,,0.00,Wunderground v.1.15,2013-03-10 04:36:00,
2013-03-09 23:39:00,36.3,31.3,30.35,NE,40,2.0,8.0,82,0.00,,,0.00,Wunderground v.1.15,2013-03-10 04:39:00,
2013-03-09 23:40:00,36.3,31.3,30.35,NE,40,2.0,3.0,82,0.00,,,0.00,Wunderground v.1.15,2013-03-10 04:40:00,
2013-03-09 23:41:00,36.3,31.3,30.35,NE,40,3.0,3.0,82,0.00,,,0.00,Wunderground v.1.15,2013-03-10 04:41:00,
2013-03-09 23:44:00,36.2,31.5,30.35,NE,40,0.0,6.0,83,0.00,,,0.00,Wunderground v.1.15,2013-03-10 04:44:00,
2013-03-09 23:46:00,36.2,31.5,30.35,NE,40,3.0,6.0,83,0.00,,,0.00,Wunderground v.1.15,2013-03-10 04:46:00,
2013-03-09 23:47:00,36.3,31.6,30.35,NE,40,0.0,6.0,83,0.00,,,0.00,Wunderground v.1.15,2013-03-10 04:47:00,
2013-03-09 23:49:00,36.4,32.0,30.35,NE,39,2.0,6.0,84,0.00,,,0.00,Wunderground v.1.15,2013-03-10 04:49:00,
2013-03-09 23:51:00,36.4,31.4,30.35,NE,39,5.0,5.0,82,0.00,,,0.00,Wunderground v.1.15,2013-03-10 04:51:00,